Time,TemperatureF,DewpointF,PressureIn,WindDirection,WindDirectionDegrees,WindSpeedMPH,WindSpeedGustMPH,Humidity,HourlyPrecipIn,Conditions,Clouds,dailyrainin,SolarRadiationWatts/m^2,SoftwareType,DateUTC
2013-03-29 00:01:00,55.1,41.5,30.13,NNE,26,1.1,2.3,60,0.00,CLR,,0.00,0.0,WeatherDisplay:10.37,2013-03-29 05:01:00,
2013-03-29 00:03:00,55.1,41.0,30.13,NNE,32,2.0,3.5,59,0.00,CLR,,0.00,0.0,WeatherDisplay:10.37,2013-03-29 05:03:00,
2013-03-29 00:07:00,55.2,41.1,30.13,NE,45,1.5,4.0,59,0.00,CLR,,0.00,0.0,WeatherDisplay:10.37,2013-03-29 05:07:00,
2013-03-29 00:08:00,55.2,41.1,30.13,NE,46,1.2,3.5,59,0.00,CLR,,0.00,0.0,WeatherDisplay:10.37,2013-03-29 05:08:00,
2013-03-29 00:12:00,55.1,41.5,30.13,NE,48,1.0,1.2,60,0.00,CLR,,0.00,0.0,WeatherDisplay:10.37,2013-03-29 05:12:00,
2013-03-29 00:13:00,55.1,41.0,30.13,NE,48,0.3,1.2,59,0.00,CLR,,0.00,0.0,WeatherDisplay:10.37,2013-03-29 05:13:00,
2013-03-29 00:14:00,55.1,41.0,30.13,NE,48,0.0,1.2,59,0.00,CLR,,0.00,0.0,WeatherDisplay:10.37,2013-03-29 05:14:00,
2013-03-29 00:17:00,55.0,40.9,30.13,ENE,67,1.2,4.0,59,0.00,CLR,,0.00,0.0,WeatherDisplay:10.37,2013-03-29 05:17:00,
2013-03-29 00:18:00,55.1,41.0,30.13,East,97,2.6,3.5,59,0.00,CLR,,0.00,0.0,WeatherDisplay:10.37,2013-03-29 05:18:00,
2013-03-29 00:19:00,55.1,41.0,30.13,ENE,62,2.1,6.9,59,0.00,CLR,,0.00,0.0,WeatherDisplay:10.37,2013-03-29 05:19:00,
2013-03-29 00:23:00,55.0,41.4,30.12,SE,141,1.4,3.5,60,0.00,CLR,,0.00,0.0,WeatherDisplay:10.37,2013-03-29 05:23:00,
2013-03-29 00:24:00,54.9,40.8,30.12,SE,141,0.9,2.3,59,0.00,CLR,,0.00,0.0,WeatherDisplay:10.37,2013-03-29 05:24:00,
2013-03-29 00:29:00,54.6,41.0,30.12,ESE,105,0.1,1.2,60,0.00,CLR,,0.00,0.0,WeatherDisplay:10.37,2013-03-29 05:29:00,
2013-03-29 00:34:00,54.3,40.7,30.12,East,80,0.8,3.5,60,0.00,CLR,,0.00,0.0,WeatherDisplay:10.37,2013-03-29 05:34:00,
2013-03-29 00:35:00,54.3,40.7,30.12,East,81,0.6,2.3,60,0.00,CLR,,0.00,0.0,WeatherDisplay:10.37,2013-03-29 05:35:00,
2013-03-29 00:39:00,54.1,40.5,30.12,East,91,0.8,2.3,60,0.00,CLR,,0.00,0.0,WeatherDisplay:10.37,2013-03-29 05:39:00,
2013-03-29 00:41:00,54.1,40.5,30.12,ESE,113,1.3,2.3,60,0.00,CLR,,0.00,0.0,WeatherDisplay:10.37,2013-03-29 05:41:00,
2013-03-29 00:44:00,54.0,40.8,30.12,East,79,1.1,2.0,61,0.00,CLR,,0.00,0.0,WeatherDisplay:10.37,2013-03-29 05:44:00,
2013-03-29 00:45:00,53.9,40.8,30.12,ENE,77,1.3,1.3,61,0.00,CLR,,0.00,0.0,WeatherDisplay:10.37,2013-03-29 05:45:00,
2013-03-29 00:46:00,53.9,40.8,30.12,ESE,110,1.1,2.3,61,0.00,CLR,,0.00,0.0,WeatherDisplay:10.37,2013-03-29 05:46:00,
2013-03-29 00:49:00,53.8,40.7,30.12,East,84,1.6,2.3,61,0.00,CLR,,0.00,0.0,WeatherDisplay:10.37,2013-03-29 05:49:00,
2013-03-29 00:50:00,53.8,40.7,30.12,East,84,1.0,2.3,61,0.00,CLR,,0.00,0.0,WeatherDisplay:10.37,2013-03-29 05:50:00,
2013-03-29 00:52:00,53.8,40.7,30.12,ENE,78,0.5,2.3,61,0.00,CLR,,0.00,0.0,WeatherDisplay:10.37,2013-03-29 05:52:00,
2013-03-29 00:54:00,53.7,41.0,30.12,NE,54,1.1,3.5,62,0.00,CLR,,0.00,0.0,WeatherDisplay:10.37,2013-03-29 05:54:00,
2013-03-29 00:55:00,53.7,41.0,30.12,NE,54,0.9,3.5,62,0.00,CLR,,0.00,0.0,WeatherDisplay:10.37,2013-03-29 05:55:00,
2013-03-29 00:58:00,53.6,40.9,30.12,NE,42,2.3,3.5,62,0.00,CLR,,0.00,0.0,WeatherDisplay:10.37,2013-03-29 05:58:00,
2013-03-29 00:59:00,53.6,40.9,30.12,East,81,2.1,4.6,62,0.00,CLR,,0.00,0.0,WeatherDisplay:10.37,2013-03-29 05:59:00,
2013-03-29 01:00:00,53.6,40.9,30.12,East,81,0.7,4.6,62,0.00,CLR,,0.00,0.0,WeatherDisplay:10.37,2013-03-29 06:00:00,
2013-03-29 01:03:00,53.5,40.8,30.12,ENE,65,1.6,3.5,62,0.00,CLR,,0.00,0.0,WeatherDisplay:10.37,2013-03-29 06:03:00,
2013-03-29 01:04:00,53.4,40.7,30.12,ENE,57,2.5,3.5,62,0.00,CLR,,0.00,0.0,WeatherDisplay:10.37,2013-03-29 06:04:00,
2013-03-29 01:05:00,53.4,40.7,30.12,ENE,57,2.1,3.5,62,0.00,CLR,,0.00,0.0,WeatherDisplay:10.37,2013-03-29 06:05:00,
2013-03-29 01:08:00,53.2,40.5,30.12,NE,36,1.8,2.3,62,0.00,CLR,,0.00,0.0,WeatherDisplay:10.37,2013-03-29 06:08:00,
2013-03-29 01:09:00,53.2,40.9,30.12,NE,38,1.3,3.5,63,0.00,CLR,,0.00,0.0,WeatherDisplay:10.37,2013-03-29 06:09:00,
2013-03-29 01:10:00,53.2,40.9,30.12,East,80,1.4,3.5,63,0.00,CLR,,0.00,0.0,WeatherDisplay:10.37,2013-03-29 06:10:00,
2013-03-29 01:13:00,53.0,40.7,30.12,NE,46,1.9,2.3,63,0.00,CLR,,0.00,0.0,WeatherDisplay:10.37,2013-03-29 06:13:00,
2013-03-29 01:15:00,52.9,40.6,30.12,NE,46,0.4,2.3,63,0.00,CLR,,0.00,0.0,WeatherDisplay:10.37,2013-03-29 06:15:00,
2013-03-29 01:18:00,52.6,40.8,30.12,NE,50,2.1,3.5,64,0.00,CLR,,0.00,0.0,WeatherDisplay:10.37,2013-03-29 06:18:00,
2013-03-29 01:20:00,52.4,41.0,30.13,NE,44,1.7,3.5,65,0.00,CLR,,0.00,0.0,WeatherDisplay:10.37,2013-03-29 06:20:00,
2013-03-29 01:24:00,52.4,41.0,30.12,NE,39,2.2,3.5,65,0.00,CLR,,0.00,0.0,WeatherDisplay:10.37,2013-03-29 06:24:00,
2013-03-29 01:25:00,52.3,40.9,30.13,NNE,26,2.4,3.5,65,0.00,CLR,,0.00,0.0,WeatherDisplay:10.37,2013-03-29 06:25:00,
2013-03-29 01:26:00,52.3,40.9,30.13,ENE,57,1.7,3.5,65,0.00,CLR,,0.00,0.0,WeatherDisplay:10.37,2013-03-29 06:26:00,
2013-03-29 01:29:00,52.0,41.0,30.12,ENE,57,1.5,2.3,66,0.00,CLR,,0.00,0.0,WeatherDisplay:10.37,2013-03-29 06:29:00,
2013-03-29 01:30:00,51.8,40.8,30.12,NE,51,1.8,2.3,66,0.00,CLR,,0.00,0.0,WeatherDisplay:10.37,2013-03-29 06:30:00,
2013-03-29 01:31:00,51.7,40.7,30.12,NE,51,1.8,3.5,66,0.00,CLR,,0.00,0.0,WeatherDisplay:10.37,2013-03-29 06:31:00,
2013-03-29 01:34:00,51.0,40.4,30.13,ENE,74,2.7,6.0,67,0.00,CLR,,0.00,0.0,WeatherDisplay:10.37,2013-03-29 06:34:00,
2013-03-29 01:36:00,51.0,40.8,30.13,NNE,30,2.5,4.6,68,0.00,CLR,,0.00,0.0,WeatherDisplay:10.37,2013-03-29 06:36:00,
2013-03-29 01:37:00,51.0,40.8,30.13,NE,36,2.5,3.5,68,0.00,CLR,,0.00,0.0,WeatherDisplay:10.37,2013-03-29 06:37:00,
2013-03-29 01:39:00,51.1,40.9,30.13,NNE,32,2.5,3.5,68,0.00,CLR,,0.00,0.0,WeatherDisplay:10.37,2013-03-29 06:39:00,
2013-03-29 01:42:00,51.3,41.1,30.13,East,88,1.4,2.3,68,0.00,CLR,,0.00,0.0,WeatherDisplay:10.37,2013-03-29 06:42:00,
2013-03-29 01:45:00,51.3,41.1,30.13,NE,52,1.0,5.0,68,0.00,CLR,,0.00,0.0,WeatherDisplay:10.37,2013-03-29 06:45:00,
2013-03-29 01:47:00,51.4,41.2,30.12,SE,140,1.4,3.5,68,0.00,CLR,,0.00,0.0,WeatherDisplay:10.37,2013-03-29 06:47:00,
2013-03-29 01:48:00,51.4,41.2,30.12,SE,134,3.0,4.6,68,0.00,CLR,,0.00,0.0,WeatherDisplay:10.37,2013-03-29 06:48:00,
2013-03-29 01:50:00,51.4,41.2,30.13,ESE,107,1.6,3.5,68,0.00,CLR,,0.00,0.0,WeatherDisplay:10.37,2013-03-29 06:50:00,
2013-03-29 01:52:00,51.4,41.2,30.13,East,84,1.8,3.5,68,0.00,CLR,,0.00,0.0,WeatherDisplay:10.37,2013-03-29 06:52:00,
2013-03-29 01:53:00,51.4,41.2,30.13,East,97,1.3,2.3,68,0.00,CLR,,0.00,0.0,WeatherDisplay:10.37,2013-03-29 06:53:00,
2013-03-29 01:55:00,51.2,41.4,30.13,ENE,61,1.9,3.5,69,0.00,CLR,,0.00,0.0,WeatherDisplay:10.37,2013-03-29 06:55:00,
2013-03-29 01:57:00,51.2,41.4,30.13,ENE,61,1.4,2.3,69,0.00,CLR,,0.00,0.0,WeatherDisplay:10.37,2013-03-29 06:57:00,
2013-03-29 01:58:00,51.1,41.7,30.13,ENE,61,1.1,2.3,70,0.00,CLR,,0.00,0.0,WeatherDisplay:10.37,2013-03-29 06:58:00,
2013-03-29 02:00:00,50.9,41.5,30.13,ENE,61,1.3,3.0,70,0.00,CLR,,0.00,0.0,WeatherDisplay:10.37,2013-03-29 07:00:00,
2013-03-29 02:03:00,50.8,41.4,30.13,ENE,74,1.3,2.3,70,0.00,CLR,,0.00,0.0,WeatherDisplay:10.37,2013-03-29 07:03:00,
2013-03-29 02:05:00,50.6,41.5,30.13,ENE,74,0.4,2.3,71,0.00,CLR,,0.00,0.0,WeatherDisplay:10.37,2013-03-29 07:05:00,
2013-03-29 02:08:00,50.6,41.5,30.13,NE,44,0.6,2.3,71,0.00,CLR,,0.00,0.0,WeatherDisplay:10.37,2013-03-29 07:08:00,
2013-03-29 02:10:00,50.6,41.5,30.13,NE,41,3.4,4.6,71,0.00,CLR,,0.00,0.0,WeatherDisplay:10.37,2013-03-29 07:10:00,
2013-03-29 02:13:00,50.6,41.9,30.13,East,93,2.2,3.5,72,0.00,CLR,,0.00,0.0,WeatherDisplay:10.37,2013-03-29 07:13:00,
2013-03-29 02:16:00,50.5,41.8,30.13,ENE,57,1.6,3.5,72,0.00,CLR,,0.00,0.0,WeatherDisplay:10.37,2013-03-29 07:16:00,
2013-03-29 02:18:00,50.4,41.7,30.13,ENE,61,0.8,1.2,72,0.00,CLR,,0.00,0.0,WeatherDisplay:10.37,2013-03-29 07:18:00,
2013-03-29 02:21:00,50.2,41.9,30.13,ESE,113,1.7,3.5,73,0.00,CLR,,0.00,0.0,WeatherDisplay:10.37,2013-03-29 07:21:00,
2013-03-29 02:23:00,50.1,41.8,30.13,NE,51,2.1,3.5,73,0.00,CLR,,0.00,0.0,WeatherDisplay:10.37,2013-03-29 07:23:00,
2013-03-29 02:24:00,50.1,41.8,30.13,NE,51,1.8,3.5,73,0.00,CLR,,0.00,0.0,WeatherDisplay:10.37,2013-03-29 07:24:00,
2013-03-29 02:27:00,49.8,41.8,30.13,NE,53,1.6,3.5,74,0.00,CLR,,0.00,0.0,WeatherDisplay:10.37,2013-03-29 07:27:00,
2013-03-29 02:29:00,49.7,41.7,30.13,ENE,57,1.9,2.3,74,0.00,CLR,,0.00,0.0,WeatherDisplay:10.37,2013-03-29 07:29:00,
2013-03-29 02:32:00,49.6,42.0,30.13,NNE,32,1.1,3.5,75,0.00,CLR,,0.00,0.0,WeatherDisplay:10.37,2013-03-29 07:32:00,
2013-03-29 02:34:00,49.6,42.0,30.13,East,99,2.0,3.0,75,0.00,CLR,,0.00,0.0,WeatherDisplay:10.37,2013-03-29 07:34:00,
2013-03-29 02:37:00,49.5,41.9,30.12,East,96,0.3,2.0,75,0.00,CLR,,0.00,0.0,WeatherDisplay:10.37,2013-03-29 07:37:00,
2013-03-29 02:39:00,49.4,41.8,30.12,East,84,1.3,3.5,75,0.00,CLR,,0.00,0.0,WeatherDisplay:10.37,2013-03-29 07:39:00,
2013-03-29 02:40:00,49.3,42.1,30.12,East,84,1.0,3.5,76,0.00,CLR,,0.00,0.0,WeatherDisplay:10.37,2013-03-29 07:40:00,
2013-03-29 02:43:00,49.2,42.0,30.12,ENE,71,1.8,4.6,76,0.00,CLR,,0.00,0.0,WeatherDisplay:10.37,2013-03-29 07:43:00,
2013-03-29 02:44:00,49.2,42.0,30.12,ENE,69,1.0,3.5,76,0.00,CLR,,0.00,0.0,WeatherDisplay:10.37,2013-03-29 07:44:00,
2013-03-29 02:45:00,49.1,41.9,30.12,East,97,1.7,3.5,76,0.00,CLR,,0.00,0.0,WeatherDisplay:10.37,2013-03-29 07:45:00,
2013-03-29 02:48:00,49.0,42.1,30.11,NE,55,0.9,2.3,77,0.00,CLR,,0.00,0.0,WeatherDisplay:10.37,2013-03-29 07:48:00,
2013-03-29 02:49:00,48.8,41.9,30.11,ENE,69,2.9,6.9,77,0.00,CLR,,0.00,0.0,WeatherDisplay:10.37,2013-03-29 07:49:00,
2013-03-29 02:50:00,48.9,42.0,30.11,East,80,2.0,7.0,77,0.00,CLR,,0.00,0.0,WeatherDisplay:10.37,2013-03-29 07:50:00,
2013-03-29 02:53:00,48.7,41.8,30.11,ESE,119,0.4,1.2,77,0.00,CLR,,0.00,0.0,WeatherDisplay:10.37,2013-03-29 07:53:00,
2013-03-29 02:54:00,48.6,41.7,30.11,East,80,0.5,3.5,77,0.00,CLR,,0.00,0.0,WeatherDisplay:10.37,2013-03-29 07:54:00,
2013-03-29 02:55:00,48.6,41.7,30.11,East,101,1.0,3.0,77,0.00,CLR,,0.00,0.0,WeatherDisplay:10.37,2013-03-29 07:55:00,
2013-03-29 02:58:00,48.3,41.8,30.11,East,83,1.5,3.0,78,0.00,CLR,,0.00,0.0,WeatherDisplay:10.37,2013-03-29 07:58:00,
2013-03-29 02:59:00,48.3,41.8,30.11,ENE,66,0.9,3.5,78,0.00,CLR,,0.00,0.0,WeatherDisplay:10.37,2013-03-29 07:59:00,
2013-03-29 03:00:00,48.3,41.8,30.11,East,80,1.1,3.5,78,0.00,CLR,,0.00,0.0,WeatherDisplay:10.37,2013-03-29 08:00:00,
2013-03-29 03:03:00,48.2,41.7,30.12,NE,40,1.5,3.5,78,0.00,CLR,,0.00,0.0,WeatherDisplay:10.37,2013-03-29 08:03:00,
2013-03-29 03:05:00,48.2,41.7,30.12,NE,40,0.1,1.2,78,0.00,CLR,,0.00,0.0,WeatherDisplay:10.37,2013-03-29 08:05:00,
2013-03-29 03:06:00,48.1,41.6,30.12,NE,44,0.9,2.3,78,0.00,CLR,,0.00,0.0,WeatherDisplay:10.37,2013-03-29 08:06:00,
2013-03-29 03:08:00,48.0,41.5,30.12,NE,44,1.8,3.5,78,0.00,CLR,,0.00,0.0,WeatherDisplay:10.37,2013-03-29 08:08:00,
2013-03-29 03:10:00,47.8,41.3,30.11,NNE,24,2.1,3.5,78,0.00,CLR,,0.00,0.0,WeatherDisplay:10.37,2013-03-29 08:10:00,
2013-03-29 03:11:00,47.7,41.5,30.12,NE,40,2.3,3.5,79,0.00,CLR,,0.00,0.0,WeatherDisplay:10.37,2013-03-29 08:11:00,
2013-03-29 03:13:00,47.6,41.4,30.12,East,85,1.8,4.6,79,0.00,CLR,,0.00,0.0,WeatherDisplay:10.37,2013-03-29 08:13:00,
2013-03-29 03:15:00,47.6,41.4,30.11,ENE,58,1.5,3.5,79,0.00,CLR,,0.00,0.0,WeatherDisplay:10.37,2013-03-29 08:15:00,
2013-03-29 03:17:00,47.5,41.3,30.12,ENE,59,3.0,4.6,79,0.00,CLR,,0.00,0.0,WeatherDisplay:10.37,2013-03-29 08:17:00,
2013-03-29 03:18:00,47.4,41.2,30.12,ENE,74,2.2,3.5,79,0.00,CLR,,0.00,0.0,WeatherDisplay:10.37,2013-03-29 08:18:00,
2013-03-29 03:20:00,47.4,41.2,30.12,ENE,76,1.9,3.5,79,0.00,CLR,,0.00,0.0,WeatherDisplay:10.37,2013-03-29 08:20:00,
2013-03-29 03:21:00,47.4,41.2,30.12,East,92,1.4,2.3,79,0.00,CLR,,0.00,0.0,WeatherDisplay:10.37,2013-03-29 08:21:00,
2013-03-29 03:22:00,47.4,41.2,30.12,NE,51,1.3,2.3,79,0.00,CLR,,0.00,0.0,WeatherDisplay:10.37,2013-03-29 08:22:00,
2013-03-29 03:23:00,47.3,41.1,30.12,NE,51,0.8,2.3,79,0.00,CLR,,0.00,0.0,WeatherDisplay:10.37,2013-03-29 08:23:00,
2013-03-29 03:25:00,47.2,41.3,30.12,NE,55,1.8,3.5,80,0.00,CLR,,0.00,0.0,WeatherDisplay:10.37,2013-03-29 08:25:00,
2013-03-29 03:26:00,47.2,41.3,30.12,NE,40,1.7,2.3,80,0.00,CLR,,0.00,0.0,WeatherDisplay:10.37,2013-03-29 08:26:00,
2013-03-29 03:28:00,47.1,41.2,30.12,East,81,1.3,3.5,80,0.00,CLR,,0.00,0.0,WeatherDisplay:10.37,2013-03-29 08:28:00,
2013-03-29 03:29:00,47.1,41.2,30.12,East,83,0.5,3.5,80,0.00,CLR,,0.00,0.0,WeatherDisplay:10.37,2013-03-29 08:29:00,
2013-03-29 03:30:00,47.1,41.2,30.12,East,83,0.4,0.0,80,0.00,CLR,,0.00,0.0,WeatherDisplay:10.37,2013-03-29 08:30:00,
2013-03-29 03:32:00,47.1,41.2,30.12,East,83,0.4,1.2,80,0.00,CLR,,0.00,0.0,WeatherDisplay:10.37,2013-03-29 08:32:00,
2013-03-29 03:33:00,47.1,41.2,30.11,East,83,0.4,1.2,80,0.00,CLR,,0.00,0.0,WeatherDisplay:10.37,2013-03-29 08:33:00,
2013-03-29 03:34:00,47.0,41.1,30.11,East,83,0.0,0.0,80,0.00,CLR,,0.00,0.0,WeatherDisplay:10.37,2013-03-29 08:34:00,
2013-03-29 03:36:00,47.0,41.1,30.11,East,83,0.0,0.0,80,0.00,CLR,,0.00,0.0,WeatherDisplay:10.37,2013-03-29 08:36:00,
2013-03-29 03:37:00,46.9,41.1,30.11,ESE,102,0.0,1.0,80,0.00,CLR,,0.00,0.0,WeatherDisplay:10.37,2013-03-29 08:37:00,
2013-03-29 03:38:00,46.9,41.1,30.11,ESE,116,1.0,2.3,80,0.00,CLR,,0.00,0.0,WeatherDisplay:10.37,2013-03-29 08:38:00,
2013-03-29 03:40:00,46.8,41.0,30.11,East,101,1.0,3.0,80,0.00,CLR,,0.00,0.0,WeatherDisplay:10.37,2013-03-29 08:40:00,
2013-03-29 03:42:00,46.8,41.0,30.11,East,87,1.0,2.3,80,0.00,CLR,,0.00,0.0,WeatherDisplay:10.37,2013-03-29 08:42:00,
2013-03-29 03:43:00,46.8,41.0,30.11,ENE,67,1.6,3.5,80,0.00,CLR,,0.00,0.0,WeatherDisplay:10.37,2013-03-29 08:43:00,
2013-03-29 03:45:00,46.7,40.9,30.11,East,81,2.0,4.0,80,0.00,CLR,,0.00,0.0,WeatherDisplay:10.37,2013-03-29 08:45:00,
2013-03-29 03:47:00,46.6,41.1,30.11,ENE,66,2.4,3.5,81,0.00,CLR,,0.00,0.0,WeatherDisplay:10.37,2013-03-29 08:47:00,
2013-03-29 03:48:00,46.5,41.0,30.11,NE,49,2.2,3.5,81,0.00,CLR,,0.00,0.0,WeatherDisplay:10.37,2013-03-29 08:48:00,
2013-03-29 03:50:00,46.4,40.9,30.11,ENE,63,3.0,3.0,81,0.00,CLR,,0.00,0.0,WeatherDisplay:10.37,2013-03-29 08:50:00,
2013-03-29 03:52:00,46.4,40.9,30.11,NE,55,1.6,3.5,81,0.00,CLR,,0.00,0.0,WeatherDisplay:10.37,2013-03-29 08:52:00,
2013-03-29 03:53:00,46.4,40.9,30.11,SE,133,1.5,3.5,81,0.00,CLR,,0.00,0.0,WeatherDisplay:10.37,2013-03-29 08:53:00,
2013-03-29 03:55:00,46.3,40.8,30.11,NE,44,0.6,2.0,81,0.00,CLR,,0.00,0.0,WeatherDisplay:10.37,2013-03-29 08:55:00,
2013-03-29 03:57:00,46.2,40.7,30.11,NE,46,1.9,3.5,81,0.00,CLR,,0.00,0.0,WeatherDisplay:10.37,2013-03-29 08:57:00,
2013-03-29 03:58:00,46.2,40.7,30.11,NE,55,2.1,3.5,81,0.00,CLR,,0.00,0.0,WeatherDisplay:10.37,2013-03-29 08:58:00,
2013-03-29 04:01:00,46.1,40.6,30.11,NE,55,1.8,3.5,81,0.00,CLR,,0.00,0.0,WeatherDisplay:10.37,2013-03-29 09:01:00,
2013-03-29 04:03:00,46.1,40.6,30.11,ENE,76,2.3,3.5,81,0.00,CLR,,0.00,0.0,WeatherDisplay:10.37,2013-03-29 09:03:00,
2013-03-29 04:06:00,46.0,40.5,30.11,ENE,64,1.7,3.5,81,0.00,CLR,,0.00,0.0,WeatherDisplay:10.37,2013-03-29 09:06:00,
2013-03-29 04:08:00,46.0,40.5,30.11,ENE,59,1.6,3.5,81,0.00,CLR,,0.00,0.0,WeatherDisplay:10.37,2013-03-29 09:08:00,
2013-03-29 04:09:00,46.0,40.5,30.11,East,80,1.5,3.5,81,0.00,CLR,,0.00,0.0,WeatherDisplay:10.37,2013-03-29 09:09:00,
2013-03-29 04:11:00,46.1,40.6,30.11,ENE,61,0.6,2.3,81,0.00,CLR,,0.00,0.0,WeatherDisplay:10.37,2013-03-29 09:11:00,
2013-03-29 04:14:00,46.1,40.3,30.11,NE,47,0.7,2.3,80,0.00,CLR,,0.00,0.0,WeatherDisplay:10.37,2013-03-29 09:14:00,
2013-03-29 04:16:00,46.2,40.4,30.11,ENE,68,0.7,3.5,80,0.00,CLR,,0.00,0.0,WeatherDisplay:10.37,2013-03-29 09:16:00,
2013-03-29 04:19:00,46.1,40.3,30.11,ENE,68,0.0,0.0,80,0.00,CLR,,0.00,0.0,WeatherDisplay:10.37,2013-03-29 09:19:00,
2013-03-29 04:22:00,46.0,40.2,30.11,ENE,68,0.0,0.0,80,0.00,CLR,,0.00,0.0,WeatherDisplay:10.37,2013-03-29 09:22:00,
2013-03-29 04:24:00,45.9,40.4,30.12,ENE,68,0.6,2.0,81,0.00,CLR,,0.00,0.0,WeatherDisplay:10.37,2013-03-29 09:24:00,
2013-03-29 04:27:00,45.9,40.4,30.12,ENE,69,0.5,2.3,81,0.00,CLR,,0.00,0.0,WeatherDisplay:10.37,2013-03-29 09:27:00,
2013-03-29 04:29:00,45.9,40.1,30.12,ENE,69,0.0,0.0,80,0.00,CLR,,0.00,0.0,WeatherDisplay:10.37,2013-03-29 09:29:00,
2013-03-29 04:30:00,45.8,40.0,30.11,ENE,69,0.0,0.0,80,0.00,CLR,,0.00,0.0,WeatherDisplay:10.37,2013-03-29 09:30:00,
2013-03-29 04:32:00,45.6,39.8,30.11,ENE,69,0.0,1.2,80,0.00,CLR,,0.00,0.0,WeatherDisplay:10.37,2013-03-29 09:32:00,
2013-03-29 04:34:00,45.2,39.7,30.11,ENE,69,0.0,0.0,81,0.00,CLR,,0.00,0.0,WeatherDisplay:10.37,2013-03-29 09:34:00,
2013-03-29 04:35:00,45.2,40.0,30.11,ENE,69,0.0,0.0,82,0.00,CLR,,0.00,0.0,WeatherDisplay:10.37,2013-03-29 09:35:00,
2013-03-29 04:37:00,45.1,39.9,30.11,ENE,69,0.0,0.0,82,0.00,CLR,,0.00,0.0,WeatherDisplay:10.37,2013-03-29 09:37:00,
2013-03-29 04:39:00,45.1,39.9,30.12,ENE,69,0.0,0.0,82,0.00,CLR,,0.00,0.0,WeatherDisplay:10.37,2013-03-29 09:39:00,
2013-03-29 04:40:00,45.1,39.9,30.12,ENE,69,0.0,0.0,82,0.00,CLR,,0.00,0.0,WeatherDisplay:10.37,2013-03-29 09:40:00,
2013-03-29 04:42:00,45.0,39.8,30.11,ENE,69,0.0,0.0,82,0.00,CLR,,0.00,0.0,WeatherDisplay:10.37,2013-03-29 09:42:00,
2013-03-29 04:44:00,45.0,39.8,30.11,ENE,69,0.0,0.0,82,0.00,CLR,,0.00,0.0,WeatherDisplay:10.37,2013-03-29 09:44:00,
2013-03-29 04:45:00,45.0,39.8,30.11,ENE,69,0.0,0.0,82,0.00,CLR,,0.00,0.0,WeatherDisplay:10.37,2013-03-29 09:45:00,
2013-03-29 04:47:00,44.6,39.8,30.11,ENE,69,0.0,0.0,83,0.00,CLR,,0.00,0.0,WeatherDisplay:10.37,2013-03-29 09:47:00,
2013-03-29 04:50:00,44.1,39.6,30.11,ENE,69,0.0,0.0,84,0.00,CLR,,0.00,0.0,WeatherDisplay:10.37,2013-03-29 09:50:00,
2013-03-29 04:51:00,44.1,39.6,30.11,ENE,69,0.0,0.0,84,0.00,CLR,,0.00,0.0,WeatherDisplay:10.37,2013-03-29 09:51:00,
2013-03-29 04:52:00,44.2,39.7,30.11,ENE,69,0.0,0.0,84,0.00,CLR,,0.00,0.0,WeatherDisplay:10.37,2013-03-29 09:52:00,
2013-03-29 04:55:00,44.1,39.6,30.11,ENE,69,0.0,0.0,84,0.00,CLR,,0.00,0.0,WeatherDisplay:10.37,2013-03-29 09:55:00,
2013-03-29 04:56:00,43.9,39.4,30.11,ENE,69,0.2,1.2,84,0.00,CLR,,0.00,0.0,WeatherDisplay:10.37,2013-03-29 09:56:00,
2013-03-29 04:57:00,43.8,39.3,30.11,ENE,69,1.2,2.0,84,0.00,CLR,,0.00,0.0,WeatherDisplay:10.37,2013-03-29 09:57:00,
2013-03-29 05:00:00,43.1,38.9,30.11,ENE,68,1.7,2.3,85,0.00,CLR,,0.00,0.0,WeatherDisplay:10.37,2013-03-29 10:00:00,
2013-03-29 05:02:00,42.8,38.9,30.12,NNW,329,1.3,3.5,86,0.00,CLR,,0.00,0.0,WeatherDisplay:10.37,2013-03-29 10:02:00,
2013-03-29 05:03:00,42.7,38.8,30.12,NNW,345,1.2,2.3,86,0.00,CLR,,0.00,0.0,WeatherDisplay:10.37,2013-03-29 10:03:00,
2013-03-29 05:05:00,42.7,39.1,30.12,North,360,1.2,2.3,87,0.00,CLR,,0.00,0.0,WeatherDisplay:10.37,2013-03-29 10:05:00,
2013-03-29 05:07:00,42.7,38.8,30.12,North,11,0.2,2.0,86,0.00,CLR,,0.00,0.0,WeatherDisplay:10.37,2013-03-29 10:07:00,
2013-03-29 05:08:00,42.6,38.7,30.12,North,11,0.7,2.3,86,0.00,CLR,,0.00,0.0,WeatherDisplay:10.37,2013-03-29 10:08:00,
2013-03-29 05:10:00,42.7,39.1,30.12,NE,36,1.2,2.3,87,0.00,CLR,,0.00,0.0,WeatherDisplay:10.37,2013-03-29 10:10:00,
2013-03-29 05:12:00,42.8,39.2,30.12,NE,36,0.2,1.2,87,0.00,CLR,,0.00,0.0,WeatherDisplay:10.37,2013-03-29 10:12:00,
2013-03-29 05:13:00,42.9,39.0,30.12,NE,36,0.8,1.2,86,0.00,CLR,,0.00,0.0,WeatherDisplay:10.37,2013-03-29 10:13:00,
2013-03-29 05:16:00,43.1,39.2,30.12,NE,43,1.1,2.3,86,0.00,CLR,,0.00,0.0,WeatherDisplay:10.37,2013-03-29 10:16:00,
2013-03-29 05:17:00,43.5,39.6,30.12,ENE,71,0.9,2.3,86,0.00,CLR,,0.00,0.0,WeatherDisplay:10.37,2013-03-29 10:17:00,
2013-03-29 05:18:00,43.6,39.4,30.12,ENE,71,0.4,2.3,85,0.00,CLR,,0.00,0.0,WeatherDisplay:10.37,2013-03-29 10:18:00,
2013-03-29 05:22:00,43.8,39.3,30.13,ENE,71,0.3,1.2,84,0.00,CLR,,0.00,0.0,WeatherDisplay:10.37,2013-03-29 10:22:00,
2013-03-29 05:23:00,43.9,39.4,30.12,ENE,71,0.1,1.2,84,0.00,CLR,,0.00,0.0,WeatherDisplay:10.37,2013-03-29 10:23:00,
2013-03-29 05:24:00,43.9,39.4,30.13,NNE,18,0.7,2.3,84,0.00,CLR,,0.00,0.0,WeatherDisplay:10.37,2013-03-29 10:24:00,
2013-03-29 05:27:00,43.9,39.4,30.13,NNE,19,0.0,0.0,84,0.00,CLR,,0.00,0.0,WeatherDisplay:10.37,2013-03-29 10:27:00,
2013-03-29 05:28:00,43.9,39.4,30.13,ENE,60,1.3,2.3,84,0.00,CLR,,0.00,0.0,WeatherDisplay:10.37,2013-03-29 10:28:00,
2013-03-29 05:29:00,43.9,39.4,30.13,ENE,60,0.3,2.3,84,0.00,CLR,,0.00,0.0,WeatherDisplay:10.37,2013-03-29 10:29:00,
2013-03-29 05:32:00,44.0,39.5,30.13,ENE,61,0.8,2.3,84,0.00,CLR,,0.00,0.0,WeatherDisplay:10.37,2013-03-29 10:32:00,
2013-03-29 05:33:00,44.0,39.5,30.13,ENE,61,1.0,2.0,84,0.00,CLR,,0.00,0.0,WeatherDisplay:10.37,2013-03-29 10:33:00,
2013-03-29 05:34:00,44.0,39.5,30.12,East,80,1.5,3.5,84,0.00,CLR,,0.00,0.0,WeatherDisplay:10.37,2013-03-29 10:34:00,
2013-03-29 05:37:00,43.8,39.3,30.13,East,80,0.9,2.3,84,0.00,CLR,,0.00,0.0,WeatherDisplay:10.37,2013-03-29 10:37:00,
2013-03-29 05:38:00,43.7,39.2,30.12,NE,46,3.1,4.6,84,0.00,CLR,,0.00,0.0,WeatherDisplay:10.37,2013-03-29 10:38:00,
2013-03-29 05:39:00,43.7,39.2,30.12,NE,46,2.2,3.5,84,0.00,CLR,,0.00,0.0,WeatherDisplay:10.37,2013-03-29 10:39:00,
2013-03-29 05:40:00,43.6,39.1,30.13,NE,39,1.6,3.5,84,0.00,CLR,,0.00,0.0,WeatherDisplay:10.37,2013-03-29 10:40:00,
2013-03-29 05:42:00,43.5,39.0,30.12,East,86,1.5,3.5,84,0.00,CLR,,0.00,0.0,WeatherDisplay:10.37,2013-03-29 10:42:00,
2013-03-29 05:43:00,43.5,39.0,30.13,NE,53,1.3,2.3,84,0.00,CLR,,0.00,0.0,WeatherDisplay:10.37,2013-03-29 10:43:00,
2013-03-29 05:44:00,43.6,39.1,30.12,NNE,25,2.1,4.6,84,0.00,CLR,,0.00,0.0,WeatherDisplay:10.37,2013-03-29 10:44:00,
2013-03-29 05:45:00,43.6,39.1,30.13,NE,55,1.4,2.3,84,0.00,CLR,,0.00,0.0,WeatherDisplay:10.37,2013-03-29 10:45:00,
2013-03-29 05:47:00,43.7,39.2,30.13,ENE,62,1.0,3.0,84,0.00,CLR,,0.00,0.0,WeatherDisplay:10.37,2013-03-29 10:47:00,
2013-03-29 05:48:00,43.7,39.2,30.12,East,82,2.2,4.6,84,0.00,CLR,,0.00,0.0,WeatherDisplay:10.37,2013-03-29 10:48:00,
2013-03-29 05:49:00,43.8,39.3,30.12,NE,36,1.5,4.6,84,0.00,CLR,,0.00,0.0,WeatherDisplay:10.37,2013-03-29 10:49:00,
2013-03-29 05:50:00,43.8,39.3,30.12,NE,49,1.2,2.3,84,0.00,CLR,,0.00,0.0,WeatherDisplay:10.37,2013-03-29 10:50:00,
2013-03-29 05:53:00,43.8,39.3,30.12,ENE,66,1.7,3.5,84,0.00,CLR,,0.00,0.0,WeatherDisplay:10.37,2013-03-29 10:53:00,
2013-03-29 05:54:00,43.8,39.0,30.12,ENE,66,0.1,2.3,83,0.00,CLR,,0.00,0.0,WeatherDisplay:10.37,2013-03-29 10:54:00,
2013-03-29 05:55:00,43.8,39.3,30.13,ENE,66,0.5,1.2,84,0.00,CLR,,0.00,0.0,WeatherDisplay:10.37,2013-03-29 10:55:00,
2013-03-29 05:58:00,43.7,39.2,30.12,East,80,1.6,2.3,84,0.00,CLR,,0.00,0.0,WeatherDisplay:10.37,2013-03-29 10:58:00,
2013-03-29 05:59:00,43.7,39.2,30.13,ENE,63,1.8,3.5,84,0.00,CLR,,0.00,0.0,WeatherDisplay:10.37,2013-03-29 10:59:00,
2013-03-29 06:00:00,43.7,39.2,30.13,NE,52,1.8,3.5,84,0.00,CLR,,0.00,0.0,WeatherDisplay:10.37,2013-03-29 11:00:00,
2013-03-29 06:03:00,43.7,39.2,30.13,ENE,78,1.0,2.3,84,0.00,CLR,,0.00,0.0,WeatherDisplay:10.37,2013-03-29 11:03:00,
2013-03-29 06:04:00,43.7,39.2,30.13,NNE,24,1.9,3.5,84,0.00,CLR,,0.00,0.0,WeatherDisplay:10.37,2013-03-29 11:04:00,
2013-03-29 06:05:00,43.7,39.2,30.13,NNE,30,2.3,4.6,84,0.00,CLR,,0.00,0.0,WeatherDisplay:10.37,2013-03-29 11:05:00,
2013-03-29 06:08:00,43.8,39.0,30.13,ENE,66,1.2,2.3,83,0.00,CLR,,0.00,0.0,WeatherDisplay:10.37,2013-03-29 11:08:00,
2013-03-29 06:09:00,43.9,39.1,30.13,NE,42,2.2,3.5,83,0.00,CLR,,0.00,0.0,WeatherDisplay:10.37,2013-03-29 11:09:00,
2013-03-29 06:10:00,43.9,39.1,30.13,NE,44,1.4,3.5,83,0.00,CLR,,0.00,0.0,WeatherDisplay:10.37,2013-03-29 11:10:00,
2013-03-29 06:13:00,44.0,39.2,30.13,ENE,63,1.6,2.3,83,0.00,CLR,,0.00,0.0,WeatherDisplay:10.37,2013-03-29 11:13:00,
2013-03-29 06:14:00,44.0,39.2,30.14,ENE,63,0.4,3.5,83,0.00,CLR,,0.00,0.0,WeatherDisplay:10.37,2013-03-29 11:14:00,
2013-03-29 06:15:00,43.9,39.1,30.13,ENE,63,0.5,3.5,83,0.00,CLR,,0.00,0.0,WeatherDisplay:10.37,2013-03-29 11:15:00,
2013-03-29 06:16:00,43.9,39.1,30.13,NE,43,2.4,2.4,83,0.00,CLR,,0.00,0.0,WeatherDisplay:10.37,2013-03-29 11:16:00,
2013-03-29 06:18:00,43.8,39.0,30.13,NE,46,2.1,2.1,83,0.00,CLR,,0.00,0.0,WeatherDisplay:10.37,2013-03-29 11:18:00,
2013-03-29 06:19:00,43.8,39.0,30.13,NE,46,1.6,3.5,83,0.00,CLR,,0.00,0.0,WeatherDisplay:10.37,2013-03-29 11:19:00,
2013-03-29 06:20:00,43.8,39.0,30.13,NE,46,1.2,3.5,83,0.00,CLR,,0.00,0.0,WeatherDisplay:10.37,2013-03-29 11:20:00,
2013-03-29 06:21:00,43.8,39.0,30.13,East,80,2.0,2.3,83,0.00,CLR,,0.00,0.0,WeatherDisplay:10.37,2013-03-29 11:21:00,
2013-03-29 06:24:00,43.7,38.9,30.13,ENE,64,1.9,3.5,83,0.00,CLR,,0.00,0.0,WeatherDisplay:10.37,2013-03-29 11:24:00,
2013-03-29 06:25:00,43.7,38.9,30.13,NE,49,3.0,4.6,83,0.00,CLR,,0.00,0.0,WeatherDisplay:10.37,2013-03-29 11:25:00,
2013-03-29 06:26:00,43.7,38.9,30.13,ENE,68,2.4,3.5,83,0.00,CLR,,0.00,0.0,WeatherDisplay:10.37,2013-03-29 11:26:00,
2013-03-29 06:29:00,43.7,38.9,30.13,North,360,2.5,3.5,83,0.00,CLR,,0.00,0.0,WeatherDisplay:10.37,2013-03-29 11:29:00,
2013-03-29 06:30:00,43.8,39.0,30.14,NE,42,1.9,3.5,83,0.00,CLR,,0.00,0.0,WeatherDisplay:10.37,2013-03-29 11:30:00,
2013-03-29 06:32:00,43.7,38.9,30.13,ENE,61,1.8,3.5,83,0.00,CLR,,0.00,0.0,WeatherDisplay:10.37,2013-03-29 11:32:00,
2013-03-29 06:34:00,43.7,38.9,30.13,NE,43,2.6,3.5,83,0.00,CLR,,0.00,0.0,WeatherDisplay:10.37,2013-03-29 11:34:00,
2013-03-29 06:35:00,43.7,38.9,30.13,ENE,78,1.9,4.0,83,0.00,CLR,,0.00,0.0,WeatherDisplay:10.37,2013-03-29 11:35:00,
2013-03-29 06:37:00,43.6,38.8,30.13,ENE,63,1.6,3.5,83,0.00,CLR,,0.00,0.0,WeatherDisplay:10.37,2013-03-29 11:37:00,
2013-03-29 06:39:00,43.5,38.7,30.13,ENE,63,1.1,2.3,83,0.00,CLR,,0.00,0.0,WeatherDisplay:10.37,2013-03-29 11:39:00,
2013-03-29 06:40:00,43.5,38.7,30.13,NNE,21,2.4,3.5,83,0.00,CLR,,0.00,0.0,WeatherDisplay:10.37,2013-03-29 11:40:00,
2013-03-29 06:42:00,43.4,38.9,30.13,East,88,1.3,2.3,84,0.00,CLR,,0.00,0.0,WeatherDisplay:10.37,2013-03-29 11:42:00,
2013-03-29 06:44:00,43.4,38.9,30.14,ENE,66,2.3,4.6,84,0.00,CLR,,0.00,0.0,WeatherDisplay:10.37,2013-03-29 11:44:00,
2013-03-29 06:45:00,43.4,38.6,30.13,NE,54,2.4,3.5,83,0.00,CLR,,0.00,0.0,WeatherDisplay:10.37,2013-03-29 11:45:00,
2013-03-29 06:47:00,43.3,38.8,30.13,NE,54,1.4,3.0,84,0.00,CLR,,0.00,0.0,WeatherDisplay:10.37,2013-03-29 11:47:00,
2013-03-29 06:49:00,43.2,38.7,30.14,NNE,23,2.7,6.0,84,0.00,CLR,,0.00,0.0,WeatherDisplay:10.37,2013-03-29 11:49:00,
2013-03-29 06:50:00,43.2,38.7,30.14,ENE,71,3.7,5.8,84,0.00,CLR,,0.00,0.0,WeatherDisplay:10.37,2013-03-29 11:50:00,
2013-03-29 06:52:00,43.2,38.7,30.13,ENE,61,3.1,4.6,84,0.00,CLR,,0.00,0.0,WeatherDisplay:10.37,2013-03-29 11:52:00,
2013-03-29 06:54:00,43.1,38.6,30.14,ENE,74,2.7,4.0,84,0.00,CLR,,0.00,0.0,WeatherDisplay:10.37,2013-03-29 11:54:00,
2013-03-29 06:55:00,43.1,38.6,30.14,East,92,3.1,4.6,84,0.00,CLR,,0.00,0.0,WeatherDisplay:10.37,2013-03-29 11:55:00,
2013-03-29 06:58:00,43.0,38.5,30.14,ENE,59,2.7,4.6,84,0.00,CLR,,0.00,0.0,WeatherDisplay:10.37,2013-03-29 11:58:00,
2013-03-29 06:59:00,43.0,38.5,30.14,NE,55,3.9,6.9,84,0.00,CLR,,0.00,0.0,WeatherDisplay:10.37,2013-03-29 11:59:00,
2013-03-29 07:00:00,43.0,38.5,30.14,NE,55,2.8,4.6,84,0.00,CLR,,0.00,0.0,WeatherDisplay:10.37,2013-03-29 12:00:00,
2013-03-29 07:01:00,43.0,38.5,30.14,NE,55,1.8,4.6,84,0.00,CLR,,0.00,0.0,WeatherDisplay:10.37,2013-03-29 12:01:00,
2013-03-29 07:03:00,43.0,38.5,30.14,ENE,69,3.5,4.6,84,0.00,CLR,,0.00,0.0,WeatherDisplay:10.37,2013-03-29 12:03:00,
2013-03-29 07:05:00,43.0,38.5,30.14,NE,54,2.1,4.6,84,0.00,CLR,,0.00,0.0,WeatherDisplay:10.37,2013-03-29 12:05:00,
2013-03-29 07:07:00,42.9,38.4,30.14,NE,39,1.7,3.5,84,0.00,CLR,,0.00,0.0,WeatherDisplay:10.37,2013-03-29 12:07:00,
2013-03-29 07:08:00,42.9,38.4,30.14,ENE,59,3.0,4.6,84,0.00,CLR,,0.00,0.0,WeatherDisplay:10.37,2013-03-29 12:08:00,
2013-03-29 07:10:00,42.9,38.4,30.14,ENE,68,1.2,2.3,84,0.00,CLR,,0.00,5.0,WeatherDisplay:10.37,2013-03-29 12:10:00,
2013-03-29 07:11:00,42.8,38.3,30.14,ENE,71,2.0,2.3,84,0.00,CLR,,0.00,5.0,WeatherDisplay:10.37,2013-03-29 12:11:00,
2013-03-29 07:12:00,42.7,38.2,30.14,ENE,60,1.5,2.3,84,0.00,CLR,,0.00,5.0,WeatherDisplay:10.37,2013-03-29 12:12:00,
2013-03-29 07:13:00,42.7,38.2,30.14,NE,53,1.7,3.0,84,0.00,CLR,,0.00,7.0,WeatherDisplay:10.37,2013-03-29 12:13:00,
2013-03-29 07:15:00,42.6,38.4,30.14,NE,44,2.0,3.5,85,0.00,CLR,,0.00,7.0,WeatherDisplay:10.37,2013-03-29 12:15:00,
2013-03-29 07:17:00,42.6,38.4,30.14,East,90,3.0,6.9,85,0.00,CLR,,0.00,9.0,WeatherDisplay:10.37,2013-03-29 12:17:00,
2013-03-29 07:18:00,42.6,38.4,30.14,NE,56,2.2,6.9,85,0.00,CLR,,0.00,9.0,WeatherDisplay:10.37,2013-03-29 12:18:00,
2013-03-29 07:20:00,42.6,38.4,30.14,ENE,66,1.6,3.5,85,0.00,CLR,,0.00,11.0,WeatherDisplay:10.37,2013-03-29 12:20:00,
2013-03-29 07:22:00,42.5,38.3,30.14,ENE,63,1.5,2.3,85,0.00,CLR,,0.00,12.0,WeatherDisplay:10.37,2013-03-29 12:22:00,
2013-03-29 07:23:00,42.6,38.4,30.14,ENE,61,1.9,3.5,85,0.00,CLR,,0.00,12.0,WeatherDisplay:10.37,2013-03-29 12:23:00,
2013-03-29 07:25:00,42.6,38.4,30.14,ENE,66,3.4,5.8,85,0.00,CLR,,0.00,14.0,WeatherDisplay:10.37,2013-03-29 12:25:00,
2013-03-29 07:27:00,42.7,38.5,30.14,East,79,1.3,2.3,85,0.00,CLR,,0.00,16.0,WeatherDisplay:10.37,2013-03-29 12:27:00,
2013-03-29 07:28:00,42.8,38.3,30.15,NNE,32,2.5,4.6,84,0.00,CLR,,0.00,16.0,WeatherDisplay:10.37,2013-03-29 12:28:00,
2013-03-29 07:30:00,42.7,38.2,30.15,NE,38,0.7,2.3,84,0.00,CLR,,0.00,18.0,WeatherDisplay:10.37,2013-03-29 12:30:00,
2013-03-29 07:32:00,42.8,38.3,30.15,NE,49,2.1,3.5,84,0.00,CLR,,0.00,19.0,WeatherDisplay:10.37,2013-03-29 12:32:00,
2013-03-29 07:33:00,42.7,38.2,30.15,NE,49,2.0,3.5,84,0.00,CLR,,0.00,19.0,WeatherDisplay:10.37,2013-03-29 12:33:00,
2013-03-29 07:35:00,42.8,38.3,30.15,NE,38,2.1,3.5,84,0.00,CLR,,0.00,21.0,WeatherDisplay:10.37,2013-03-29 12:35:00,
2013-03-29 07:37:00,42.8,38.3,30.15,NE,53,3.5,4.6,84,0.00,CLR,,0.00,23.0,WeatherDisplay:10.37,2013-03-29 12:37:00,
2013-03-29 07:38:00,42.9,38.4,30.15,NE,53,2.6,3.5,84,0.00,CLR,,0.00,23.0,WeatherDisplay:10.37,2013-03-29 12:38:00,
2013-03-29 07:39:00,42.9,38.4,30.15,NE,49,1.9,3.5,84,0.00,CLR,,0.00,25.0,WeatherDisplay:10.37,2013-03-29 12:39:00,
2013-03-29 07:41:00,42.9,38.4,30.15,NE,54,1.7,2.3,84,0.00,CLR,,0.00,25.0,WeatherDisplay:10.37,2013-03-29 12:41:00,
2013-03-29 07:42:00,42.9,38.4,30.15,NE,47,2.4,4.6,84,0.00,CLR,,0.00,26.0,WeatherDisplay:10.37,2013-03-29 12:42:00,
2013-03-29 07:43:00,42.9,38.4,30.15,ENE,74,2.9,3.5,84,0.00,CLR,,0.00,26.0,WeatherDisplay:10.37,2013-03-29 12:43:00,
2013-03-29 07:44:00,42.9,38.4,30.15,NE,43,2.4,3.5,84,0.00,CLR,,0.00,26.0,WeatherDisplay:10.37,2013-03-29 12:44:00,
2013-03-29 07:46:00,42.9,38.4,30.15,NE,48,0.7,2.3,84,0.00,CLR,,0.00,30.0,WeatherDisplay:10.37,2013-03-29 12:46:00,
2013-03-29 07:48:00,42.9,38.4,30.15,East,91,2.9,3.5,84,0.00,CLR,,0.00,33.0,WeatherDisplay:10.37,2013-03-29 12:48:00,
2013-03-29 07:49:00,42.9,38.4,30.16,ENE,61,2.5,3.5,84,0.00,CLR,,0.00,33.0,WeatherDisplay:10.37,2013-03-29 12:49:00,
2013-03-29 07:51:00,43.0,38.5,30.16,ENE,58,1.6,3.5,84,0.00,CLR,,0.00,33.0,WeatherDisplay:10.37,2013-03-29 12:51:00,
2013-03-29 07:53:00,43.1,38.6,30.15,NE,46,1.5,3.5,84,0.00,CLR,,0.00,33.0,WeatherDisplay:10.37,2013-03-29 12:53:00,
2013-03-29 07:54:00,43.1,38.6,30.16,ENE,61,1.4,3.5,84,0.00,CLR,,0.00,33.0,WeatherDisplay:10.37,2013-03-29 12:54:00,
2013-03-29 07:57:00,43.1,38.6,30.16,NNE,31,3.2,5.8,84,0.00,CLR,,0.00,39.0,WeatherDisplay:10.37,2013-03-29 12:57:00,
2013-03-29 07:58:00,43.2,38.7,30.16,NE,44,3.4,5.8,84,0.00,CLR,,0.00,42.0,WeatherDisplay:10.37,2013-03-29 12:58:00,
2013-03-29 07:59:00,43.2,38.7,30.16,ENE,57,2.8,5.8,84,0.00,CLR,,0.00,46.0,WeatherDisplay:10.37,2013-03-29 12:59:00,
2013-03-29 08:03:00,43.4,38.9,30.16,NE,49,1.4,4.0,84,0.00,CLR,,0.00,47.0,WeatherDisplay:10.37,2013-03-29 13:03:00,
2013-03-29 08:04:00,43.4,38.6,30.16,ENE,74,1.8,4.6,83,0.00,CLR,,0.00,42.0,WeatherDisplay:10.37,2013-03-29 13:04:00,
2013-03-29 08:08:00,43.6,38.8,30.16,ESE,113,3.1,4.6,83,0.00,CLR,,0.00,56.0,WeatherDisplay:10.37,2013-03-29 13:08:00,
2013-03-29 08:09:00,43.7,38.9,30.16,ESE,114,1.6,4.6,83,0.00,CLR,,0.00,56.0,WeatherDisplay:10.37,2013-03-29 13:09:00,
2013-03-29 08:13:00,43.8,38.7,30.16,ENE,67,1.7,3.5,82,0.00,CLR,,0.00,62.0,WeatherDisplay:10.37,2013-03-29 13:13:00,
2013-03-29 08:14:00,43.8,38.7,30.16,East,90,1.6,3.5,82,0.00,CLR,,0.00,62.0,WeatherDisplay:10.37,2013-03-29 13:14:00,
2013-03-29 08:18:00,44.1,39.0,30.16,ENE,58,0.7,3.5,82,0.00,CLR,,0.00,84.0,WeatherDisplay:10.37,2013-03-29 13:18:00,
2013-03-29 08:19:00,44.1,39.0,30.16,ENE,58,1.2,2.3,82,0.00,CLR,,0.00,86.0,WeatherDisplay:10.37,2013-03-29 13:19:00,
2013-03-29 08:23:00,44.3,39.2,30.16,SE,126,2.7,3.5,82,0.00,CLR,,0.00,70.0,WeatherDisplay:10.37,2013-03-29 13:23:00,
2013-03-29 08:24:00,44.3,39.2,30.16,East,85,2.7,4.6,82,0.00,CLR,,0.00,74.0,WeatherDisplay:10.37,2013-03-29 13:24:00,
2013-03-29 08:25:00,44.4,39.2,30.16,NE,53,2.0,3.5,82,0.00,CLR,,0.00,74.0,WeatherDisplay:10.37,2013-03-29 13:25:00,
2013-03-29 08:28:00,44.6,39.1,30.16,ESE,107,2.4,6.0,81,0.00,CLR,,0.00,90.0,WeatherDisplay:10.37,2013-03-29 13:28:00,
2013-03-29 08:29:00,44.6,39.1,30.16,ESE,109,2.6,5.8,81,0.00,CLR,,0.00,90.0,WeatherDisplay:10.37,2013-03-29 13:29:00,
2013-03-29 08:30:00,44.7,39.2,30.16,East,84,1.6,3.5,81,0.00,CLR,,0.00,111.0,WeatherDisplay:10.37,2013-03-29 13:30:00,
2013-03-29 08:33:00,44.9,39.4,30.17,ENE,65,3.2,7.0,81,0.00,CLR,,0.00,132.0,WeatherDisplay:10.37,2013-03-29 13:33:00,
2013-03-29 08:34:00,44.9,39.4,30.17,NE,51,3.4,7.0,81,0.00,CLR,,0.00,132.0,WeatherDisplay:10.37,2013-03-29 13:34:00,
2013-03-29 08:35:00,45.0,39.2,30.17,NE,51,3.7,6.9,80,0.00,CLR,,0.00,153.0,WeatherDisplay:10.37,2013-03-29 13:35:00,
2013-03-29 08:39:00,45.1,39.3,30.17,NE,53,1.7,3.5,80,0.00,CLR,,0.00,163.0,WeatherDisplay:10.37,2013-03-29 13:39:00,
2013-03-29 08:40:00,45.2,39.1,30.16,NE,55,2.9,4.6,79,0.00,CLR,,0.00,178.0,WeatherDisplay:10.37,2013-03-29 13:40:00,
2013-03-29 08:44:00,45.5,39.4,30.17,NE,53,2.5,3.5,79,0.00,CLR,,0.00,216.0,WeatherDisplay:10.37,2013-03-29 13:44:00,
2013-03-29 08:46:00,45.9,39.8,30.16,ENE,57,1.0,2.3,79,0.00,CLR,,0.00,218.0,WeatherDisplay:10.37,2013-03-29 13:46:00,
2013-03-29 08:49:00,46.2,39.7,30.17,East,98,2.0,3.5,78,0.00,CLR,,0.00,241.0,WeatherDisplay:10.37,2013-03-29 13:49:00,
2013-03-29 08:50:00,46.3,39.8,30.17,East,98,0.8,1.2,78,0.00,CLR,,0.00,223.0,WeatherDisplay:10.37,2013-03-29 13:50:00,
2013-03-29 08:51:00,46.6,40.1,30.17,East,98,0.4,2.3,78,0.00,CLR,,0.00,200.0,WeatherDisplay:10.37,2013-03-29 13:51:00,
2013-03-29 08:54:00,46.9,40.1,30.16,ESE,123,3.1,6.9,77,0.00,CLR,,0.00,151.0,WeatherDisplay:10.37,2013-03-29 13:54:00,
2013-03-29 08:55:00,46.9,40.1,30.17,ESE,115,1.9,4.6,77,0.00,CLR,,0.00,91.0,WeatherDisplay:10.37,2013-03-29 13:55:00,
2013-03-29 08:56:00,46.9,40.1,30.16,ESE,121,2.0,3.5,77,0.00,CLR,,0.00,98.0,WeatherDisplay:10.37,2013-03-29 13:56:00,
2013-03-29 08:59:00,47.1,40.3,30.17,ESE,103,1.6,3.5,77,0.00,CLR,,0.00,209.0,WeatherDisplay:10.37,2013-03-29 13:59:00,
2013-03-29 09:00:00,47.3,40.5,30.17,ESE,103,0.9,2.3,77,0.00,OVC,,0.00,221.0,WeatherDisplay:10.37,2013-03-29 14:00:00,
2013-03-29 09:01:00,47.6,40.4,30.16,ENE,69,0.6,2.3,76,0.00,OVC,,0.00,257.0,WeatherDisplay:10.37,2013-03-29 14:01:00,
2013-03-29 09:04:00,47.7,40.5,30.16,SE,128,1.4,3.5,76,0.00,OVC,,0.00,241.0,WeatherDisplay:10.37,2013-03-29 14:04:00,
2013-03-29 09:05:00,47.8,40.6,30.16,ESE,114,2.0,3.5,76,0.00,OVC,,0.00,214.0,WeatherDisplay:10.37,2013-03-29 14:05:00,
2013-03-29 09:07:00,47.9,40.7,30.16,East,99,2.1,3.5,76,0.00,OVC,,0.00,246.0,WeatherDisplay:10.37,2013-03-29 14:07:00,
2013-03-29 09:09:00,48.3,40.7,30.16,East,101,2.5,3.5,75,0.00,OVC,,0.00,239.0,WeatherDisplay:10.37,2013-03-29 14:09:00,
2013-03-29 09:11:00,48.5,41.3,30.17,East,99,0.5,2.3,76,0.00,OVC,,0.00,243.0,WeatherDisplay:10.37,2013-03-29 14:11:00,
2013-03-29 09:12:00,48.8,41.2,30.16,East,91,1.7,2.3,75,0.00,OVC,,0.00,285.0,WeatherDisplay:10.37,2013-03-29 14:12:00,
2013-03-29 09:14:00,48.7,40.8,30.16,ENE,68,3.3,4.6,74,0.00,OVC,,0.00,253.0,WeatherDisplay:10.37,2013-03-29 14:14:00,
2013-03-29 09:16:00,48.6,41.0,30.16,North,360,3.3,3.5,75,0.00,OVC,,0.00,279.0,WeatherDisplay:10.37,2013-03-29 14:16:00,
2013-03-29 09:17:00,48.7,41.1,30.16,NNE,18,1.0,3.5,75,0.00,OVC,,0.00,306.0,WeatherDisplay:10.37,2013-03-29 14:17:00,
2013-03-29 09:19:00,49.0,41.4,30.16,NE,51,2.4,4.6,75,0.00,OVC,,0.00,343.0,WeatherDisplay:10.37,2013-03-29 14:19:00,
2013-03-29 09:21:00,49.2,41.3,30.17,SSW,198,0.5,2.3,74,0.00,OVC,,0.00,353.0,WeatherDisplay:10.37,2013-03-29 14:21:00,
2013-03-29 09:22:00,49.3,41.0,30.17,SSW,198,0.6,2.3,73,0.00,OVC,,0.00,357.0,WeatherDisplay:10.37,2013-03-29 14:22:00,
2013-03-29 09:24:00,50.0,41.7,30.17,SSW,194,0.7,1.2,73,0.00,OVC,,0.00,364.0,WeatherDisplay:10.37,2013-03-29 14:24:00,
2013-03-29 09:27:00,50.4,41.7,30.17,ESE,105,1.9,3.5,72,0.00,OVC,,0.00,373.0,WeatherDisplay:10.37,2013-03-29 14:27:00,
2013-03-29 09:29:00,50.6,41.9,30.17,East,91,1.1,1.2,72,0.00,OVC,,0.00,353.0,WeatherDisplay:10.37,2013-03-29 14:29:00,
2013-03-29 09:30:00,50.6,41.9,30.17,East,91,1.2,2.0,72,0.00,OVC,,0.00,353.0,WeatherDisplay:10.37,2013-03-29 14:30:00,
2013-03-29 09:32:00,51.1,42.0,30.17,East,82,1.8,3.5,71,0.00,OVC,,0.00,373.0,WeatherDisplay:10.37,2013-03-29 14:32:00,
2013-03-29 09:34:00,51.2,42.1,30.17,East,80,2.0,3.5,71,0.00,OVC,,0.00,376.0,WeatherDisplay:10.37,2013-03-29 14:34:00,
2013-03-29 09:35:00,51.2,41.7,30.17,ENE,78,2.3,3.5,70,0.00,OVC,,0.00,369.0,WeatherDisplay:10.37,2013-03-29 14:35:00,
2013-03-29 09:37:00,51.5,42.8,30.17,SSE,152,0.5,3.5,72,0.00,OVC,,0.00,413.0,WeatherDisplay:10.37,2013-03-29 14:37:00,
2013-03-29 09:39:00,51.9,42.4,30.17,SE,131,1.2,2.3,70,0.00,OVC,,0.00,418.0,WeatherDisplay:10.37,2013-03-29 14:39:00,
2013-03-29 09:40:00,51.9,42.8,30.17,SE,131,1.0,2.3,71,0.00,OVC,,0.00,418.0,WeatherDisplay:10.37,2013-03-29 14:40:00,
2013-03-29 09:42:00,52.2,42.3,30.17,ESE,123,3.4,3.5,69,0.00,OVC,,0.00,429.0,WeatherDisplay:10.37,2013-03-29 14:42:00,
2013-03-29 09:44:00,52.2,42.3,30.17,NNE,32,1.6,3.5,69,0.00,OVC,,0.00,436.0,WeatherDisplay:10.37,2013-03-29 14:44:00,
2013-03-29 09:45:00,52.2,42.3,30.17,NNE,32,1.7,4.0,69,0.00,OVC,,0.00,436.0,WeatherDisplay:10.37,2013-03-29 14:45:00,
2013-03-29 09:48:00,52.7,42.4,30.17,SE,146,1.3,2.3,68,0.00,OVC,,0.00,387.0,WeatherDisplay:10.37,2013-03-29 14:48:00,
2013-03-29 09:49:00,52.8,42.5,30.17,East,89,2.0,4.0,68,0.00,OVC,,0.00,83.0,WeatherDisplay:10.37,2013-03-29 14:49:00,
2013-03-29 09:50:00,52.8,42.5,30.17,ENE,61,2.4,5.0,68,0.00,OVC,,0.00,83.0,WeatherDisplay:10.37,2013-03-29 14:50:00,
2013-03-29 09:53:00,52.9,42.6,30.17,ENE,65,3.2,4.6,68,0.00,OVC,,0.00,97.0,WeatherDisplay:10.37,2013-03-29 14:53:00,
2013-03-29 09:55:00,52.8,42.5,30.17,East,93,2.6,3.5,68,0.00,OVC,,0.00,469.0,WeatherDisplay:10.37,2013-03-29 14:55:00,
2013-03-29 09:58:00,53.0,42.7,30.16,ESE,111,3.2,4.6,68,0.00,OVC,,0.00,482.0,WeatherDisplay:10.37,2013-03-29 14:58:00,
2013-03-29 10:00:00,53.1,42.8,30.16,East,96,3.3,4.6,68,0.00,OVC,,0.00,489.0,WeatherDisplay:10.37,2013-03-29 15:00:00,
2013-03-29 10:03:00,53.6,43.3,30.16,NE,46,1.9,2.3,68,0.00,OVC,,0.00,503.0,WeatherDisplay:10.37,2013-03-29 15:03:00,
2013-03-29 10:05:00,53.8,43.1,30.16,ESE,109,2.4,3.5,67,0.00,OVC,,0.00,482.0,WeatherDisplay:10.37,2013-03-29 15:05:00,
2013-03-29 10:08:00,54.5,43.4,30.16,NE,36,1.9,3.5,66,0.00,OVC,,0.00,513.0,WeatherDisplay:10.37,2013-03-29 15:08:00,
2013-03-29 10:10:00,54.7,43.6,30.16,NE,36,2.2,3.5,66,0.00,OVC,,0.00,504.0,WeatherDisplay:10.37,2013-03-29 15:10:00,
2013-03-29 10:13:00,55.3,43.3,30.16,ENE,65,2.8,4.6,64,0.00,OVC,,0.00,533.0,WeatherDisplay:10.37,2013-03-29 15:13:00,
2013-03-29 10:15:00,55.3,43.3,30.16,SE,129,2.0,3.5,64,0.00,OVC,,0.00,524.0,WeatherDisplay:10.37,2013-03-29 15:15:00,
2013-03-29 10:19:00,55.9,43.1,30.16,ESE,105,3.6,7.0,62,0.00,OVC,,0.00,519.0,WeatherDisplay:10.37,2013-03-29 15:19:00,
2013-03-29 10:20:00,55.6,42.4,30.16,SSE,153,3.4,6.9,61,0.00,OVC,,0.00,547.0,WeatherDisplay:10.37,2013-03-29 15:20:00,
2013-03-29 10:21:00,55.6,42.4,30.16,SE,144,3.2,6.9,61,0.00,OVC,,0.00,547.0,WeatherDisplay:10.37,2013-03-29 15:21:00,
2013-03-29 10:24:00,55.8,43.0,30.16,SE,133,2.5,4.6,62,0.00,OVC,,0.00,369.0,WeatherDisplay:10.37,2013-03-29 15:24:00,
2013-03-29 10:25:00,56.0,42.7,30.16,ESE,108,3.7,4.6,61,0.00,OVC,,0.00,292.0,WeatherDisplay:10.37,2013-03-29 15:25:00,
2013-03-29 10:26:00,55.9,42.6,30.16,SE,124,3.6,4.6,61,0.00,OVC,,0.00,292.0,WeatherDisplay:10.37,2013-03-29 15:26:00,
2013-03-29 10:29:00,56.0,42.3,30.16,NE,40,4.1,9.2,60,0.00,OVC,,0.00,406.0,WeatherDisplay:10.37,2013-03-29 15:29:00,
2013-03-29 10:30:00,56.2,42.9,30.16,NE,55,3.3,7.0,61,0.00,OVC,,0.00,336.0,WeatherDisplay:10.37,2013-03-29 15:30:00,
2013-03-29 10:31:00,56.2,42.9,30.16,NE,55,3.3,7.0,61,0.00,OVC,,0.00,336.0,WeatherDisplay:10.37,2013-03-29 15:31:00,
2013-03-29 10:34:00,56.6,42.0,30.16,ENE,78,3.1,4.6,58,0.00,OVC,,0.00,568.0,WeatherDisplay:10.37,2013-03-29 15:34:00,
2013-03-29 10:35:00,56.7,42.5,30.16,ENE,78,2.6,3.5,59,0.00,OVC,,0.00,582.0,WeatherDisplay:10.37,2013-03-29 15:35:00,
2013-03-29 10:36:00,56.7,42.5,30.16,East,85,2.8,4.0,59,0.00,OVC,,0.00,582.0,WeatherDisplay:10.37,2013-03-29 15:36:00,
2013-03-29 10:39:00,57.0,41.9,30.16,SSE,150,4.4,11.5,57,0.00,OVC,,0.00,606.0,WeatherDisplay:10.37,2013-03-29 15:39:00,
2013-03-29 10:41:00,57.1,42.5,30.16,East,87,1.4,3.5,58,0.00,OVC,,0.00,585.0,WeatherDisplay:10.37,2013-03-29 15:41:00,
2013-03-29 10:42:00,57.5,42.4,30.16,East,88,2.1,4.6,57,0.00,OVC,,0.00,566.0,WeatherDisplay:10.37,2013-03-29 15:42:00,
2013-03-29 10:44:00,57.7,41.6,30.16,ESE,109,3.3,8.1,55,0.00,OVC,,0.00,552.0,WeatherDisplay:10.37,2013-03-29 15:44:00,
2013-03-29 10:46:00,57.8,42.7,30.16,East,82,2.6,5.8,57,0.00,OVC,,0.00,571.0,WeatherDisplay:10.37,2013-03-29 15:46:00,
2013-03-29 10:47:00,57.8,42.7,30.16,East,84,2.1,3.5,57,0.00,OVC,,0.00,596.0,WeatherDisplay:10.37,2013-03-29 15:47:00,
2013-03-29 10:50:00,58.0,42.4,30.16,NE,49,4.0,5.8,56,0.00,OVC,,0.00,628.0,WeatherDisplay:10.37,2013-03-29 15:50:00,
2013-03-29 10:52:00,58.2,42.6,30.16,East,80,1.5,3.5,56,0.00,OVC,,0.00,635.0,WeatherDisplay:10.37,2013-03-29 15:52:00,
2013-03-29 10:55:00,58.6,42.0,30.16,NE,52,3.8,6.9,54,0.00,OVC,,0.00,647.0,WeatherDisplay:10.37,2013-03-29 15:55:00,
2013-03-29 10:57:00,58.9,42.3,30.16,NE,43,3.2,4.6,54,0.00,OVC,,0.00,649.0,WeatherDisplay:10.37,2013-03-29 15:57:00,
2013-03-29 11:00:00,59.2,42.6,30.17,ENE,65,2.4,4.0,54,0.00,OVC,,0.00,659.0,WeatherDisplay:10.37,2013-03-29 16:00:00,
2013-03-29 11:02:00,59.5,42.3,30.16,ESE,114,3.4,5.8,53,0.00,OVC,,0.00,666.0,WeatherDisplay:10.37,2013-03-29 16:02:00,
2013-03-29 11:03:00,59.5,42.3,30.16,ESE,107,1.9,4.6,53,0.00,OVC,,0.00,664.0,WeatherDisplay:10.37,2013-03-29 16:03:00,
2013-03-29 11:05:00,59.9,42.2,30.16,NE,35,3.2,7.0,52,0.00,OVC,,0.00,661.0,WeatherDisplay:10.37,2013-03-29 16:05:00,
2013-03-29 11:07:00,59.4,41.3,30.17,ESE,110,3.8,6.9,51,0.00,OVC,,0.00,668.0,WeatherDisplay:10.37,2013-03-29 16:07:00,
2013-03-29 11:08:00,59.3,41.7,30.17,SE,129,3.3,6.9,52,0.00,OVC,,0.00,668.0,WeatherDisplay:10.37,2013-03-29 16:08:00,
2013-03-29 11:10:00,59.6,42.4,30.17,ENE,71,3.1,5.0,53,0.00,OVC,,0.00,659.0,WeatherDisplay:10.37,2013-03-29 16:10:00,
2013-03-29 11:12:00,59.6,41.9,30.17,ENE,66,2.7,7.0,52,0.00,OVC,,0.00,686.0,WeatherDisplay:10.37,2013-03-29 16:12:00,
2013-03-29 11:13:00,59.5,41.9,30.17,East,101,3.2,6.9,52,0.00,OVC,,0.00,686.0,WeatherDisplay:10.37,2013-03-29 16:13:00,
2013-03-29 11:15:00,59.7,42.5,30.17,NNE,17,3.2,7.0,53,0.00,OVC,,0.00,694.0,WeatherDisplay:10.37,2013-03-29 16:15:00,
2013-03-29 11:17:00,60.5,42.8,30.16,East,101,1.7,3.5,52,0.00,OVC,,0.00,701.0,WeatherDisplay:10.37,2013-03-29 16:17:00,
2013-03-29 11:18:00,60.5,42.3,30.16,East,94,1.7,3.5,51,0.00,OVC,,0.00,701.0,WeatherDisplay:10.37,2013-03-29 16:18:00,
2013-03-29 11:20:00,61.0,42.7,30.16,NE,45,4.1,5.0,51,0.00,OVC,,0.00,708.0,WeatherDisplay:10.37,2013-03-29 16:20:00,
2013-03-29 11:22:00,61.0,42.7,30.16,NE,34,2.5,5.8,51,0.00,OVC,,0.00,715.0,WeatherDisplay:10.37,2013-03-29 16:22:00,
2013-03-29 11:23:00,61.0,42.7,30.16,East,100,2.3,3.5,51,0.00,OVC,,0.00,715.0,WeatherDisplay:10.37,2013-03-29 16:23:00,
2013-03-29 11:25:00,61.0,41.7,30.16,East,99,2.6,4.6,49,0.00,OVC,,0.00,721.0,WeatherDisplay:10.37,2013-03-29 16:25:00,
2013-03-29 11:28:00,61.3,42.5,30.16,East,98,3.3,6.9,50,0.00,OVC,,0.00,726.0,WeatherDisplay:10.37,2013-03-29 16:28:00,
2013-03-29 11:30:00,61.6,42.8,30.17,South,173,2.0,4.6,50,0.00,OVC,,0.00,731.0,WeatherDisplay:10.37,2013-03-29 16:30:00,
2013-03-29 11:33:00,62.5,42.5,30.16,SE,137,2.0,3.5,48,0.00,OVC,,0.00,735.0,WeatherDisplay:10.37,2013-03-29 16:33:00,
2013-03-29 11:36:00,62.6,42.1,30.17,ESE,114,2.4,4.0,47,0.00,OVC,,0.00,742.0,WeatherDisplay:10.37,2013-03-29 16:36:00,
2013-03-29 11:38:00,62.6,42.1,30.16,ESE,111,1.5,3.5,47,0.00,OVC,,0.00,749.0,WeatherDisplay:10.37,2013-03-29 16:38:00,
2013-03-29 11:42:00,62.6,41.5,30.17,SSE,152,3.2,6.9,46,0.00,OVC,,0.00,754.0,WeatherDisplay:10.37,2013-03-29 16:42:00,
2013-03-29 11:43:00,62.7,42.2,30.17,SE,130,2.3,3.5,47,0.00,OVC,,0.00,742.0,WeatherDisplay:10.37,2013-03-29 16:43:00,
2013-03-29 11:47:00,62.7,41.6,30.16,ESE,108,4.6,6.9,46,0.00,OVC,,0.00,761.0,WeatherDisplay:10.37,2013-03-29 16:47:00,
2013-03-29 11:48:00,62.7,41.6,30.17,SE,134,4.7,10.4,46,0.00,OVC,,0.00,765.0,WeatherDisplay:10.37,2013-03-29 16:48:00,
2013-03-29 11:49:00,62.7,41.6,30.16,ESE,117,3.3,4.6,46,0.00,OVC,,0.00,765.0,WeatherDisplay:10.37,2013-03-29 16:49:00,
2013-03-29 11:52:00,62.9,41.8,30.16,SSE,159,2.3,5.8,46,0.00,OVC,,0.00,766.0,WeatherDisplay:10.37,2013-03-29 16:52:00,
2013-03-29 11:53:00,62.9,41.8,30.16,East,100,5.1,6.0,46,0.00,OVC,,0.00,772.0,WeatherDisplay:10.37,2013-03-29 16:53:00,
2013-03-29 11:54:00,62.8,41.7,30.16,ESE,103,5.2,6.9,46,0.00,OVC,,0.00,772.0,WeatherDisplay:10.37,2013-03-29 16:54:00,
2013-03-29 11:57:00,63.3,42.2,30.16,East,101,3.7,3.7,46,0.00,OVC,,0.00,773.0,WeatherDisplay:10.37,2013-03-29 16:57:00,
2013-03-29 11:58:00,63.5,41.8,30.16,NE,36,3.0,5.8,45,0.00,OVC,,0.00,779.0,WeatherDisplay:10.37,2013-03-29 16:58:00,
2013-03-29 11:59:00,63.5,41.8,30.16,ENE,70,2.6,4.6,45,0.00,OVC,,0.00,779.0,WeatherDisplay:10.37,2013-03-29 16:59:00,
2013-03-29 12:03:00,62.8,41.7,30.16,ESE,102,2.6,4.6,46,0.00,OVC,,0.00,775.0,WeatherDisplay:10.37,2013-03-29 17:03:00,
2013-03-29 12:04:00,62.9,42.4,30.16,SSE,160,1.7,5.0,47,0.00,OVC,,0.00,779.0,WeatherDisplay:10.37,2013-03-29 17:04:00,
2013-03-29 12:08:00,63.1,41.4,30.16,ESE,107,5.2,10.4,45,0.00,OVC,,0.00,795.0,WeatherDisplay:10.37,2013-03-29 17:08:00,
2013-03-29 12:09:00,63.0,41.9,30.16,NE,51,4.3,6.9,46,0.00,OVC,,0.00,795.0,WeatherDisplay:10.37,2013-03-29 17:09:00,
2013-03-29 12:13:00,63.2,42.1,30.15,SE,126,5.1,9.2,46,0.00,OVC,,0.00,782.0,WeatherDisplay:10.37,2013-03-29 17:13:00,
2013-03-29 12:14:00,63.3,42.2,30.15,ENE,71,4.1,9.2,46,0.00,OVC,,0.00,800.0,WeatherDisplay:10.37,2013-03-29 17:14:00,
2013-03-29 12:19:00,63.8,42.6,30.15,NE,46,2.1,3.5,46,0.00,OVC,,0.00,814.0,WeatherDisplay:10.37,2013-03-29 17:19:00,
2013-03-29 12:20:00,63.9,43.3,30.15,NNE,29,2.8,5.0,47,0.00,OVC,,0.00,812.0,WeatherDisplay:10.37,2013-03-29 17:20:00,
2013-03-29 12:24:00,64.0,43.9,30.15,SSE,148,2.1,6.0,48,0.00,OVC,,0.00,814.0,WeatherDisplay:10.37,2013-03-29 17:24:00,
2013-03-29 12:25:00,64.2,43.0,30.15,East,91,3.1,5.8,46,0.00,OVC,,0.00,814.0,WeatherDisplay:10.37,2013-03-29 17:25:00,
2013-03-29 12:29:00,64.3,42.5,30.15,East,97,1.7,4.6,45,0.00,OVC,,0.00,819.0,WeatherDisplay:10.37,2013-03-29 17:29:00,
2013-03-29 12:30:00,64.4,43.7,30.15,NNE,33,2.0,4.0,47,0.00,OVC,,0.00,819.0,WeatherDisplay:10.37,2013-03-29 17:30:00,
2013-03-29 12:34:00,64.7,42.9,30.15,ENE,67,4.8,5.0,45,0.00,OVC,,0.00,826.0,WeatherDisplay:10.37,2013-03-29 17:34:00,
2013-03-29 12:35:00,64.6,42.8,30.15,NE,39,4.9,6.9,45,0.00,OVC,,0.00,826.0,WeatherDisplay:10.37,2013-03-29 17:35:00,
2013-03-29 12:39:00,65.1,42.0,30.15,SSE,153,4.9,6.9,43,0.00,OVC,,0.00,833.0,WeatherDisplay:10.37,2013-03-29 17:39:00,
2013-03-29 12:40:00,65.1,42.0,30.15,SSE,154,4.8,6.9,43,0.00,OVC,,0.00,833.0,WeatherDisplay:10.37,2013-03-29 17:40:00,
2013-03-29 12:41:00,65.2,42.1,30.15,SSE,159,4.6,6.9,43,0.00,OVC,,0.00,837.0,WeatherDisplay:10.37,2013-03-29 17:41:00,
2013-03-29 12:44:00,65.7,43.2,30.15,ESE,123,2.5,3.5,44,0.00,OVC,,0.00,809.0,WeatherDisplay:10.37,2013-03-29 17:44:00,
2013-03-29 12:45:00,65.6,42.5,30.15,ESE,105,3.0,7.0,43,0.00,OVC,,0.00,809.0,WeatherDisplay:10.37,2013-03-29 17:45:00,
2013-03-29 12:46:00,65.6,42.5,30.15,ESE,109,4.1,6.9,43,0.00,OVC,,0.00,791.0,WeatherDisplay:10.37,2013-03-29 17:46:00,
2013-03-29 12:50:00,65.7,42.6,30.15,NE,53,2.6,5.8,43,0.00,OVC,,0.00,816.0,WeatherDisplay:10.37,2013-03-29 17:50:00,
2013-03-29 12:51:00,65.4,42.9,30.14,ENE,72,5.4,6.9,44,0.00,OVC,,0.00,816.0,WeatherDisplay:10.37,2013-03-29 17:51:00,
2013-03-29 12:55:00,65.2,42.7,30.14,ESE,107,3.5,8.1,44,0.00,OVC,,0.00,721.0,WeatherDisplay:10.37,2013-03-29 17:55:00,
2013-03-29 12:56:00,65.0,43.1,30.14,ENE,72,1.6,5.8,45,0.00,OVC,,0.00,779.0,WeatherDisplay:10.37,2013-03-29 17:56:00,
2013-03-29 13:00:00,64.8,41.8,30.14,ENE,61,5.1,6.9,43,0.00,OVC,,0.00,775.0,WeatherDisplay:10.37,2013-03-29 18:00:00,
2013-03-29 13:02:00,64.6,42.2,30.14,East,96,3.8,5.8,44,0.00,OVC,,0.00,749.0,WeatherDisplay:10.37,2013-03-29 18:02:00,
2013-03-29 13:05:00,64.9,43.0,30.14,East,100,2.3,7.0,45,0.00,OVC,,0.00,800.0,WeatherDisplay:10.37,2013-03-29 18:05:00,
2013-03-29 13:06:00,64.9,42.5,30.14,ENE,77,3.6,3.6,44,0.00,OVC,,0.00,800.0,WeatherDisplay:10.37,2013-03-29 18:06:00,
2013-03-29 13:07:00,65.1,42.6,30.14,East,84,3.1,4.6,44,0.00,OVC,,0.00,726.0,WeatherDisplay:10.37,2013-03-29 18:07:00,
2013-03-29 13:10:00,65.6,42.5,30.14,SE,143,2.6,4.6,43,0.00,OVC,,0.00,802.0,WeatherDisplay:10.37,2013-03-29 18:10:00,
2013-03-29 13:11:00,65.7,42.6,30.14,ENE,58,1.9,4.6,43,0.00,OVC,,0.00,830.0,WeatherDisplay:10.37,2013-03-29 18:11:00,
2013-03-29 13:12:00,66.0,44.0,30.14,SE,136,2.3,4.0,45,0.00,OVC,,0.00,835.0,WeatherDisplay:10.37,2013-03-29 18:12:00,
2013-03-29 13:15:00,66.9,43.7,30.14,NNE,28,2.6,3.5,43,0.00,OVC,,0.00,828.0,WeatherDisplay:10.37,2013-03-29 18:15:00,
2013-03-29 13:16:00,66.9,43.7,30.14,East,96,2.6,4.6,43,0.00,OVC,,0.00,796.0,WeatherDisplay:10.37,2013-03-29 18:16:00,
2013-03-29 13:18:00,66.1,42.3,30.13,ENE,59,3.2,3.5,42,0.00,OVC,,0.00,830.0,WeatherDisplay:10.37,2013-03-29 18:18:00,
2013-03-29 13:20:00,66.2,41.8,30.13,ESE,112,5.5,9.2,41,0.00,OVC,,0.00,802.0,WeatherDisplay:10.37,2013-03-29 18:20:00,
2013-03-29 13:21:00,66.4,42.0,30.13,ESE,109,2.8,9.2,41,0.00,OVC,,0.00,831.0,WeatherDisplay:10.37,2013-03-29 18:21:00,
2013-03-29 13:22:00,66.5,43.3,30.13,SSE,148,2.9,3.5,43,0.00,OVC,,0.00,831.0,WeatherDisplay:10.37,2013-03-29 18:22:00,
2013-03-29 13:23:00,66.6,43.4,30.13,NE,49,0.7,2.3,43,0.00,OVC,,0.00,693.0,WeatherDisplay:10.37,2013-03-29 18:23:00,
2013-03-29 13:25:00,66.4,43.2,30.13,NE,46,1.4,2.3,43,0.00,OVC,,0.00,786.0,WeatherDisplay:10.37,2013-03-29 18:25:00,
2013-03-29 13:26:00,66.6,44.0,30.13,SE,129,2.5,4.0,44,0.00,OVC,,0.00,823.0,WeatherDisplay:10.37,2013-03-29 18:26:00,
2013-03-29 13:27:00,66.7,44.1,30.13,SE,125,3.9,5.0,44,0.00,OVC,,0.00,823.0,WeatherDisplay:10.37,2013-03-29 18:27:00,
2013-03-29 13:28:00,66.7,40.9,30.13,ESE,104,2.4,6.9,39,0.00,OVC,,0.00,807.0,WeatherDisplay:10.37,2013-03-29 18:28:00,
2013-03-29 13:30:00,66.8,41.0,30.13,NE,38,3.8,4.6,39,0.00,OVC,,0.00,742.0,WeatherDisplay:10.37,2013-03-29 18:30:00,
2013-03-29 13:32:00,67.2,42.0,30.13,ESE,115,3.7,5.8,40,0.00,OVC,,0.00,759.0,WeatherDisplay:10.37,2013-03-29 18:32:00,
2013-03-29 13:33:00,66.9,41.1,30.13,ESE,108,2.7,6.9,39,0.00,OVC,,0.00,838.0,WeatherDisplay:10.37,2013-03-29 18:33:00,
2013-03-29 13:35:00,66.8,41.7,30.12,SSE,147,2.0,3.5,40,0.00,OVC,,0.00,875.0,WeatherDisplay:10.37,2013-03-29 18:35:00,
2013-03-29 13:37:00,67.0,41.9,30.12,NE,46,1.4,3.5,40,0.00,OVC,,0.00,865.0,WeatherDisplay:10.37,2013-03-29 18:37:00,
2013-03-29 13:39:00,66.9,40.5,30.13,ESE,109,4.1,5.8,38,0.00,OVC,,0.00,809.0,WeatherDisplay:10.37,2013-03-29 18:39:00,
2013-03-29 13:40:00,66.7,40.3,30.12,ESE,123,2.2,4.6,38,0.00,OVC,,0.00,807.0,WeatherDisplay:10.37,2013-03-29 18:40:00,
2013-03-29 13:42:00,66.7,40.9,30.12,ENE,65,2.6,4.6,39,0.00,OVC,,0.00,747.0,WeatherDisplay:10.37,2013-03-29 18:42:00,
2013-03-29 13:43:00,66.6,40.9,30.12,East,96,2.4,5.0,39,0.00,OVC,,0.00,686.0,WeatherDisplay:10.37,2013-03-29 18:43:00,
2013-03-29 13:45:00,67.0,41.2,30.12,SSE,159,2.1,3.5,39,0.00,OVC,,0.00,763.0,WeatherDisplay:10.37,2013-03-29 18:45:00,
2013-03-29 13:47:00,67.9,41.3,30.12,East,82,3.4,8.1,38,0.00,OVC,,0.00,731.0,WeatherDisplay:10.37,2013-03-29 18:47:00,
2013-03-29 13:48:00,67.7,41.2,30.12,ENE,69,5.9,10.4,38,0.00,OVC,,0.00,798.0,WeatherDisplay:10.37,2013-03-29 18:48:00,
2013-03-29 13:50:00,67.1,39.9,30.12,ENE,71,3.4,5.8,37,0.00,OVC,,0.00,861.0,WeatherDisplay:10.37,2013-03-29 18:50:00,
2013-03-29 13:52:00,66.8,40.4,30.12,SSE,162,2.9,4.6,38,0.00,OVC,,0.00,821.0,WeatherDisplay:10.37,2013-03-29 18:52:00,
2013-03-29 13:53:00,67.0,41.2,30.12,ESE,114,2.7,4.6,39,0.00,OVC,,0.00,814.0,WeatherDisplay:10.37,2013-03-29 18:53:00,
2013-03-29 13:55:00,67.0,41.2,30.12,SE,125,4.3,5.0,39,0.00,OVC,,0.00,828.0,WeatherDisplay:10.37,2013-03-29 18:55:00,
2013-03-29 13:57:00,66.7,42.9,30.12,ESE,102,1.1,4.0,42,0.00,OVC,,0.00,877.0,WeatherDisplay:10.37,2013-03-29 18:57:00,
2013-03-29 13:58:00,66.8,41.7,30.12,ESE,105,3.4,6.9,40,0.00,OVC,,0.00,854.0,WeatherDisplay:10.37,2013-03-29 18:58:00,
2013-03-29 14:00:00,67.0,41.2,30.11,ESE,121,4.6,5.0,39,0.00,OVC,,0.00,884.0,WeatherDisplay:10.37,2013-03-29 19:00:00,
2013-03-29 14:01:00,67.2,40.7,30.11,NNE,32,3.9,4.6,38,0.00,OVC,,0.00,861.0,WeatherDisplay:10.37,2013-03-29 19:01:00,
2013-03-29 14:02:00,67.4,41.6,30.11,East,94,4.3,6.9,39,0.00,OVC,,0.00,849.0,WeatherDisplay:10.37,2013-03-29 19:02:00,
2013-03-29 14:04:00,67.4,39.5,30.11,East,85,4.9,8.1,36,0.00,OVC,,0.00,875.0,WeatherDisplay:10.37,2013-03-29 19:04:00,
2013-03-29 14:05:00,67.2,40.0,30.11,NE,45,4.5,6.9,37,0.00,OVC,,0.00,817.0,WeatherDisplay:10.37,2013-03-29 19:05:00,
2013-03-29 14:07:00,67.1,39.9,30.11,SE,141,3.6,5.8,37,0.00,OVC,,0.00,858.0,WeatherDisplay:10.37,2013-03-29 19:07:00,
2013-03-29 14:08:00,67.6,39.7,30.11,SSE,162,3.5,5.8,36,0.00,OVC,,0.00,846.0,WeatherDisplay:10.37,2013-03-29 19:08:00,
2013-03-29 14:09:00,67.9,39.2,30.11,ESE,117,3.1,4.6,35,0.00,OVC,,0.00,849.0,WeatherDisplay:10.37,2013-03-29 19:09:00,
2013-03-29 14:10:00,67.9,39.9,30.11,SSE,163,4.6,8.1,36,0.00,OVC,,0.00,844.0,WeatherDisplay:10.37,2013-03-29 19:10:00,
2013-03-29 14:12:00,68.0,40.0,30.11,ENE,70,3.1,5.0,36,0.00,OVC,,0.00,831.0,WeatherDisplay:10.37,2013-03-29 19:12:00,
2013-03-29 14:13:00,67.9,39.2,30.11,ESE,103,3.2,6.9,35,0.00,OVC,,0.00,865.0,WeatherDisplay:10.37,2013-03-29 19:13:00,
2013-03-29 14:14:00,67.7,38.3,30.11,ENE,72,2.7,3.5,34,0.00,OVC,,0.00,830.0,WeatherDisplay:10.37,2013-03-29 19:14:00,
2013-03-29 14:15:00,67.5,38.1,30.11,NNE,28,2.3,4.6,34,0.00,OVC,,0.00,830.0,WeatherDisplay:10.37,2013-03-29 19:15:00,
2013-03-29 14:17:00,67.7,39.0,30.11,ESE,111,2.2,4.0,35,0.00,OVC,,0.00,814.0,WeatherDisplay:10.37,2013-03-29 19:17:00,
2013-03-29 14:18:00,67.6,39.0,30.11,NE,53,4.4,8.1,35,0.00,OVC,,0.00,877.0,WeatherDisplay:10.37,2013-03-29 19:18:00,
2013-03-29 14:19:00,67.5,40.3,30.11,East,91,2.7,6.9,37,0.00,OVC,,0.00,860.0,WeatherDisplay:10.37,2013-03-29 19:19:00,
2013-03-29 14:20:00,67.6,39.7,30.11,ENE,76,3.7,5.0,36,0.00,OVC,,0.00,863.0,WeatherDisplay:10.37,2013-03-29 19:20:00,
2013-03-29 14:22:00,67.3,38.7,30.11,SSE,157,3.2,4.6,35,0.00,OVC,,0.00,867.0,WeatherDisplay:10.37,2013-03-29 19:22:00,
2013-03-29 14:23:00,67.5,39.6,30.10,SE,130,5.1,6.9,36,0.00,OVC,,0.00,865.0,WeatherDisplay:10.37,2013-03-29 19:23:00,
2013-03-29 14:24:00,67.6,39.0,30.10,East,80,3.7,9.2,35,0.00,OVC,,0.00,860.0,WeatherDisplay:10.37,2013-03-29 19:24:00,
2013-03-29 14:25:00,67.8,39.9,30.10,ENE,78,1.2,4.6,36,0.00,OVC,,0.00,865.0,WeatherDisplay:10.37,2013-03-29 19:25:00,
2013-03-29 14:27:00,68.2,40.2,30.10,ENE,58,2.2,3.5,36,0.00,OVC,,0.00,849.0,WeatherDisplay:10.37,2013-03-29 19:27:00,
2013-03-29 14:28:00,68.3,41.0,30.10,ENE,59,3.5,8.0,37,0.00,OVC,,0.00,858.0,WeatherDisplay:10.37,2013-03-29 19:28:00,
2013-03-29 14:29:00,68.1,40.1,30.10,ESE,106,5.0,8.1,36,0.00,OVC,,0.00,856.0,WeatherDisplay:10.37,2013-03-29 19:29:00,
2013-03-29 14:30:00,67.8,39.9,30.10,SE,144,3.9,6.9,36,0.00,OVC,,0.00,851.0,WeatherDisplay:10.37,2013-03-29 19:30:00,
2013-03-29 14:33:00,67.8,39.9,30.10,ESE,122,2.0,7.0,36,0.00,OVC,,0.00,853.0,WeatherDisplay:10.37,2013-03-29 19:33:00,
2013-03-29 14:34:00,68.1,40.1,30.10,East,101,4.1,6.9,36,0.00,OVC,,0.00,844.0,WeatherDisplay:10.37,2013-03-29 19:34:00,
2013-03-29 14:35:00,67.9,39.9,30.10,SE,130,3.6,5.8,36,0.00,OVC,,0.00,840.0,WeatherDisplay:10.37,2013-03-29 19:35:00,
2013-03-29 14:38:00,67.9,41.3,30.10,NNE,26,3.7,6.9,38,0.00,OVC,,0.00,826.0,WeatherDisplay:10.37,2013-03-29 19:38:00,
2013-03-29 14:39:00,67.8,41.3,30.10,ENE,65,3.8,6.9,38,0.00,OVC,,0.00,828.0,WeatherDisplay:10.37,2013-03-29 19:39:00,
2013-03-29 14:40:00,68.0,42.1,30.10,East,80,2.7,3.5,39,0.00,OVC,,0.00,828.0,WeatherDisplay:10.37,2013-03-29 19:40:00,
2013-03-29 14:43:00,68.6,39.8,30.10,ESE,112,5.1,10.4,35,0.00,OVC,,0.00,824.0,WeatherDisplay:10.37,2013-03-29 19:43:00,
2013-03-29 14:44:00,68.2,40.2,30.10,ESE,109,2.8,5.8,36,0.00,OVC,,0.00,828.0,WeatherDisplay:10.37,2013-03-29 19:44:00,
2013-03-29 14:46:00,68.1,40.1,30.10,SE,133,4.0,8.1,36,0.00,OVC,,0.00,823.0,WeatherDisplay:10.37,2013-03-29 19:46:00,
2013-03-29 14:48:00,67.9,37.7,30.10,ESE,110,2.3,8.1,33,0.00,OVC,,0.00,821.0,WeatherDisplay:10.37,2013-03-29 19:48:00,
2013-03-29 14:49:00,67.9,37.7,30.10,ESE,103,2.9,6.9,33,0.00,OVC,,0.00,821.0,WeatherDisplay:10.37,2013-03-29 19:49:00,
2013-03-29 14:51:00,67.9,37.7,30.09,ESE,118,2.9,5.8,33,0.00,OVC,,0.00,814.0,WeatherDisplay:10.37,2013-03-29 19:51:00,
2013-03-29 14:53:00,68.5,36.7,30.09,ESE,115,5.1,10.4,31,0.00,OVC,,0.00,805.0,WeatherDisplay:10.37,2013-03-29 19:53:00,
2013-03-29 14:54:00,68.5,36.7,30.09,ESE,110,4.3,6.9,31,0.00,OVC,,0.00,805.0,WeatherDisplay:10.37,2013-03-29 19:54:00,
2013-03-29 14:56:00,68.7,35.1,30.09,SSE,155,4.0,6.9,29,0.00,OVC,,0.00,795.0,WeatherDisplay:10.37,2013-03-29 19:56:00,
2013-03-29 14:58:00,68.8,35.2,30.09,East,94,4.1,6.9,29,0.00,OVC,,0.00,802.0,WeatherDisplay:10.37,2013-03-29 19:58:00,
2013-03-29 14:59:00,68.5,35.0,30.09,SE,137,1.8,5.8,29,0.00,OVC,,0.00,802.0,WeatherDisplay:10.37,2013-03-29 19:59:00,
2013-03-29 15:02:00,69.2,36.4,30.09,SE,146,5.4,9.2,30,0.00,OVC,,0.00,789.0,WeatherDisplay:10.37,2013-03-29 20:02:00,
2013-03-29 15:04:00,69.1,37.2,30.09,SE,130,2.6,4.6,31,0.00,OVC,,0.00,782.0,WeatherDisplay:10.37,2013-03-29 20:04:00,
2013-03-29 15:05:00,68.9,37.8,30.09,SE,126,3.8,5.0,32,0.00,OVC,,0.00,765.0,WeatherDisplay:10.37,2013-03-29 20:05:00,
2013-03-29 15:07:00,68.6,37.5,30.08,NE,49,5.8,6.9,32,0.00,OVC,,0.00,777.0,WeatherDisplay:10.37,2013-03-29 20:07:00,
2013-03-29 15:08:00,68.4,38.9,30.09,SSE,153,4.7,8.1,34,0.00,OVC,,0.00,777.0,WeatherDisplay:10.37,2013-03-29 20:08:00,
2013-03-29 15:10:00,68.6,40.6,30.09,ENE,78,2.1,4.6,36,0.00,OVC,,0.00,770.0,WeatherDisplay:10.37,2013-03-29 20:10:00,
2013-03-29 15:12:00,68.6,39.1,30.08,ESE,117,2.7,9.2,34,0.00,OVC,,0.00,765.0,WeatherDisplay:10.37,2013-03-29 20:12:00,
2013-03-29 15:14:00,68.5,39.8,30.08,East,80,3.5,5.8,35,0.00,OVC,,0.00,765.0,WeatherDisplay:10.37,2013-03-29 20:14:00,
2013-03-29 15:15:00,68.2,39.5,30.08,SE,136,4.2,6.9,35,0.00,OVC,,0.00,765.0,WeatherDisplay:10.37,2013-03-29 20:15:00,
2013-03-29 15:17:00,68.1,39.4,30.08,East,97,3.4,6.9,35,0.00,OVC,,0.00,751.0,WeatherDisplay:10.37,2013-03-29 20:17:00,
2013-03-29 15:19:00,68.1,38.7,30.08,ESE,109,4.4,9.2,34,0.00,OVC,,0.00,754.0,WeatherDisplay:10.37,2013-03-29 20:19:00,
2013-03-29 15:20:00,68.4,39.7,30.08,ESE,106,5.8,9.0,35,0.00,OVC,,0.00,731.0,WeatherDisplay:10.37,2013-03-29 20:20:00,
2013-03-29 15:21:00,68.5,38.2,30.08,ESE,122,5.8,9.2,33,0.00,OVC,,0.00,712.0,WeatherDisplay:10.37,2013-03-29 20:21:00,
2013-03-29 15:22:00,68.4,38.2,30.08,SE,130,3.8,9.2,33,0.00,OVC,,0.00,728.0,WeatherDisplay:10.37,2013-03-29 20:22:00,
2013-03-29 15:24:00,68.4,38.2,30.08,ESE,109,4.3,6.9,33,0.00,OVC,,0.00,744.0,WeatherDisplay:10.37,2013-03-29 20:24:00,
2013-03-29 15:25:00,68.4,37.4,30.08,ESE,102,4.2,6.9,32,0.00,OVC,,0.00,745.0,WeatherDisplay:10.37,2013-03-29 20:25:00,
2013-03-29 15:26:00,68.1,36.3,30.08,SE,138,3.7,8.0,31,0.00,OVC,,0.00,729.0,WeatherDisplay:10.37,2013-03-29 20:26:00,
2013-03-29 15:27:00,68.0,38.6,30.08,East,94,4.4,8.1,34,0.00,OVC,,0.00,738.0,WeatherDisplay:10.37,2013-03-29 20:27:00,
2013-03-29 15:29:00,68.4,38.9,30.08,NE,53,2.9,4.6,34,0.00,OVC,,0.00,744.0,WeatherDisplay:10.37,2013-03-29 20:29:00,
2013-03-29 15:31:00,68.5,39.0,30.08,NE,56,2.5,6.9,34,0.00,OVC,,0.00,740.0,WeatherDisplay:10.37,2013-03-29 20:31:00,
2013-03-29 15:33:00,68.8,38.5,30.08,SSE,165,4.1,5.8,33,0.00,OVC,,0.00,726.0,WeatherDisplay:10.37,2013-03-29 20:33:00,
2013-03-29 15:34:00,69.1,40.3,30.08,SSE,167,4.5,6.9,35,0.00,OVC,,0.00,724.0,WeatherDisplay:10.37,2013-03-29 20:34:00,
2013-03-29 15:36:00,69.2,41.1,30.08,SE,129,4.4,9.2,36,0.00,OVC,,0.00,728.0,WeatherDisplay:10.37,2013-03-29 20:36:00,
2013-03-29 15:38:00,69.2,39.6,30.08,East,86,3.0,6.9,34,0.00,OVC,,0.00,686.0,WeatherDisplay:10.37,2013-03-29 20:38:00,
2013-03-29 15:39:00,69.2,39.6,30.08,NNE,29,4.7,9.0,34,0.00,OVC,,0.00,698.0,WeatherDisplay:10.37,2013-03-29 20:39:00,
2013-03-29 15:41:00,68.6,39.1,30.08,ESE,102,5.0,10.4,34,0.00,OVC,,0.00,714.0,WeatherDisplay:10.37,2013-03-29 20:41:00,
2013-03-29 15:43:00,68.3,39.6,30.08,ENE,74,2.2,6.9,35,0.00,OVC,,0.00,701.0,WeatherDisplay:10.37,2013-03-29 20:43:00,
2013-03-29 15:44:00,68.2,39.5,30.08,NE,38,2.4,6.9,35,0.00,OVC,,0.00,701.0,WeatherDisplay:10.37,2013-03-29 20:44:00,
2013-03-29 15:46:00,68.6,39.1,30.07,East,101,2.7,5.8,34,0.00,OVC,,0.00,686.0,WeatherDisplay:10.37,2013-03-29 20:46:00,
2013-03-29 15:48:00,68.6,39.8,30.07,ESE,109,5.5,11.5,35,0.00,OVC,,0.00,686.0,WeatherDisplay:10.37,2013-03-29 20:48:00,
2013-03-29 15:49:00,68.6,39.1,30.07,East,83,6.0,8.1,34,0.00,OVC,,0.00,686.0,WeatherDisplay:10.37,2013-03-29 20:49:00,
2013-03-29 15:50:00,68.6,39.1,30.07,ENE,78,4.4,8.1,34,0.00,OVC,,0.00,689.0,WeatherDisplay:10.37,2013-03-29 20:50:00,
2013-03-29 15:51:00,68.6,39.1,30.07,ESE,115,2.2,9.2,34,0.00,OVC,,0.00,686.0,WeatherDisplay:10.37,2013-03-29 20:51:00,
2013-03-29 15:54:00,69.1,38.0,30.07,SSE,160,5.5,8.1,32,0.00,OVC,,0.00,680.0,WeatherDisplay:10.37,2013-03-29 20:54:00,
2013-03-29 15:55:00,69.2,38.1,30.07,ESE,104,4.3,8.1,32,0.00,OVC,,0.00,679.0,WeatherDisplay:10.37,2013-03-29 20:55:00,
2013-03-29 15:57:00,68.8,37.7,30.07,East,97,4.4,6.9,32,0.00,OVC,,0.00,675.0,WeatherDisplay:10.37,2013-03-29 20:57:00,
2013-03-29 15:59:00,68.5,38.2,30.07,ESE,106,2.5,4.6,33,0.00,OVC,,0.00,671.0,WeatherDisplay:10.37,2013-03-29 20:59:00,
2013-03-29 16:00:00,68.5,38.2,30.07,East,86,4.3,5.0,33,0.00,OVC,,0.00,670.0,WeatherDisplay:10.37,2013-03-29 21:00:00,
2013-03-29 16:02:00,68.8,37.7,30.07,South,181,6.1,6.9,32,0.00,OVC,,0.00,664.0,WeatherDisplay:10.37,2013-03-29 21:02:00,
2013-03-29 16:04:00,68.7,37.6,30.07,SE,129,4.6,9.2,32,0.00,OVC,,0.00,661.0,WeatherDisplay:10.37,2013-03-29 21:04:00,
2013-03-29 16:06:00,68.7,37.6,30.07,SSE,167,1.0,4.6,32,0.00,OVC,,0.00,638.0,WeatherDisplay:10.37,2013-03-29 21:06:00,
2013-03-29 16:08:00,69.0,40.2,30.07,East,85,4.1,11.5,35,0.00,OVC,,0.00,605.0,WeatherDisplay:10.37,2013-03-29 21:08:00,
2013-03-29 16:09:00,69.1,38.8,30.07,SE,132,3.5,6.9,33,0.00,OVC,,0.00,650.0,WeatherDisplay:10.37,2013-03-29 21:09:00,
2013-03-29 16:11:00,69.2,38.1,30.07,SSE,148,6.4,9.2,32,0.00,OVC,,0.00,647.0,WeatherDisplay:10.37,2013-03-29 21:11:00,
2013-03-29 16:13:00,69.1,38.0,30.07,South,171,3.9,5.8,32,0.00,OVC,,0.00,638.0,WeatherDisplay:10.37,2013-03-29 21:13:00,
2013-03-29 16:14:00,69.3,38.9,30.06,SE,132,3.6,8.1,33,0.00,OVC,,0.00,629.0,WeatherDisplay:10.37,2013-03-29 21:14:00,
2013-03-29 16:17:00,69.7,39.3,30.06,South,184,4.2,6.9,33,0.00,OVC,,0.00,626.0,WeatherDisplay:10.37,2013-03-29 21:17:00,
2013-03-29 16:18:00,69.6,38.4,30.06,SSE,151,3.1,5.8,32,0.00,OVC,,0.00,628.0,WeatherDisplay:10.37,2013-03-29 21:18:00,
2013-03-29 16:19:00,69.4,38.2,30.06,SSE,148,6.3,6.9,32,0.00,OVC,,0.00,621.0,WeatherDisplay:10.37,2013-03-29 21:19:00,
2013-03-29 16:22:00,69.1,38.0,30.06,SSE,158,5.8,10.0,32,0.00,OVC,,0.00,615.0,WeatherDisplay:10.37,2013-03-29 21:22:00,
2013-03-29 16:23:00,69.0,37.9,30.06,South,177,5.9,10.4,32,0.00,OVC,,0.00,624.0,WeatherDisplay:10.37,2013-03-29 21:23:00,
2013-03-29 16:25:00,68.9,37.8,30.06,East,100,4.4,5.8,32,0.00,OVC,,0.00,621.0,WeatherDisplay:10.37,2013-03-29 21:25:00,
2013-03-29 16:28:00,68.8,36.9,30.06,East,97,6.1,12.7,31,0.00,OVC,,0.00,598.0,WeatherDisplay:10.37,2013-03-29 21:28:00,
2013-03-29 16:30:00,68.8,37.7,30.07,SE,128,5.4,8.1,32,0.00,OVC,,0.00,543.0,WeatherDisplay:10.37,2013-03-29 21:30:00,
2013-03-29 16:33:00,68.8,36.9,30.07,SSE,167,4.2,9.2,31,0.00,OVC,,0.00,601.0,WeatherDisplay:10.37,2013-03-29 21:33:00,
2013-03-29 16:34:00,68.8,37.7,30.07,SE,130,3.8,8.0,32,0.00,OVC,,0.00,596.0,WeatherDisplay:10.37,2013-03-29 21:34:00,
2013-03-29 16:35:00,68.7,37.6,30.07,SE,145,4.8,8.1,32,0.00,OVC,,0.00,591.0,WeatherDisplay:10.37,2013-03-29 21:35:00,
2013-03-29 16:38:00,68.3,38.1,30.07,SE,129,3.0,4.6,33,0.00,OVC,,0.00,541.0,WeatherDisplay:10.37,2013-03-29 21:38:00,
2013-03-29 16:39:00,68.4,38.2,30.07,SE,146,3.4,5.0,33,0.00,OVC,,0.00,541.0,WeatherDisplay:10.37,2013-03-29 21:39:00,
2013-03-29 16:40:00,68.4,38.2,30.06,SE,143,3.9,6.9,33,0.00,OVC,,0.00,552.0,WeatherDisplay:10.37,2013-03-29 21:40:00,
2013-03-29 16:43:00,68.8,39.3,30.06,SE,134,3.0,5.0,34,0.00,OVC,,0.00,564.0,WeatherDisplay:10.37,2013-03-29 21:43:00,
2013-03-29 16:44:00,68.8,39.3,30.06,ESE,111,3.4,4.6,34,0.00,OVC,,0.00,561.0,WeatherDisplay:10.37,2013-03-29 21:44:00,
2013-03-29 16:45:00,68.7,38.4,30.06,ESE,109,2.4,4.6,33,0.00,OVC,,0.00,557.0,WeatherDisplay:10.37,2013-03-29 21:45:00,
2013-03-29 16:49:00,68.8,38.5,30.06,SW,228,3.5,4.6,33,0.00,OVC,,0.00,547.0,WeatherDisplay:10.37,2013-03-29 21:49:00,
2013-03-29 16:50:00,68.9,38.6,30.06,SSE,151,4.5,6.9,33,0.00,OVC,,0.00,540.0,WeatherDisplay:10.37,2013-03-29 21:50:00,
2013-03-29 16:54:00,68.4,38.2,30.06,ESE,109,2.7,3.5,33,0.00,OVC,,0.00,533.0,WeatherDisplay:10.37,2013-03-29 21:54:00,
2013-03-29 16:55:00,68.5,39.0,30.06,SE,138,2.5,3.5,34,0.00,OVC,,0.00,529.0,WeatherDisplay:10.37,2013-03-29 21:55:00,
2013-03-29 16:59:00,68.6,38.3,30.06,SE,143,2.8,6.9,33,0.00,OVC,,0.00,519.0,WeatherDisplay:10.37,2013-03-29 21:59:00,
2013-03-29 17:00:00,68.7,39.2,30.06,SE,134,3.2,4.6,34,0.00,OVC,,0.00,513.0,WeatherDisplay:10.37,2013-03-29 22:00:00,
2013-03-29 17:04:00,68.1,38.7,30.06,SSE,158,1.5,3.5,34,0.00,OVC,,0.00,499.0,WeatherDisplay:10.37,2013-03-29 22:04:00,
2013-03-29 17:05:00,68.2,39.5,30.06,ESE,105,1.8,3.5,35,0.00,OVC,,0.00,499.0,WeatherDisplay:10.37,2013-03-29 22:05:00,
2013-03-29 17:07:00,68.4,38.9,30.06,NE,40,1.9,3.5,34,0.00,OVC,,0.00,494.0,WeatherDisplay:10.37,2013-03-29 22:07:00,
2013-03-29 17:09:00,68.6,38.3,30.07,SSE,155,5.5,8.1,33,0.00,OVC,,0.00,490.0,WeatherDisplay:10.37,2013-03-29 22:09:00,
2013-03-29 17:11:00,68.7,37.6,30.07,SSE,157,3.6,8.1,32,0.00,OVC,,0.00,490.0,WeatherDisplay:10.37,2013-03-29 22:11:00,
2013-03-29 17:12:00,68.6,36.7,30.07,SE,132,3.9,5.8,31,0.00,OVC,,0.00,480.0,WeatherDisplay:10.37,2013-03-29 22:12:00,
2013-03-29 17:14:00,68.1,37.1,30.06,South,178,1.7,5.8,32,0.00,OVC,,0.00,471.0,WeatherDisplay:10.37,2013-03-29 22:14:00,
2013-03-29 17:15:00,68.1,37.1,30.06,SSE,166,1.6,3.5,32,0.00,OVC,,0.00,471.0,WeatherDisplay:10.37,2013-03-29 22:15:00,
2013-03-29 17:16:00,68.1,37.9,30.06,NE,44,2.8,5.8,33,0.00,OVC,,0.00,469.0,WeatherDisplay:10.37,2013-03-29 22:16:00,
2013-03-29 17:17:00,67.9,37.7,30.07,East,82,1.9,4.6,33,0.00,OVC,,0.00,464.0,WeatherDisplay:10.37,2013-03-29 22:17:00,
2013-03-29 17:19:00,67.8,38.4,30.06,SE,144,1.9,5.8,34,0.00,OVC,,0.00,455.0,WeatherDisplay:10.37,2013-03-29 22:19:00,
2013-03-29 17:20:00,67.8,38.4,30.06,SE,141,1.9,4.0,34,0.00,OVC,,0.00,455.0,WeatherDisplay:10.37,2013-03-29 22:20:00,
2013-03-29 17:21:00,68.0,38.6,30.06,ESE,109,2.6,5.0,34,0.00,OVC,,0.00,452.0,WeatherDisplay:10.37,2013-03-29 22:21:00,
2013-03-29 17:22:00,68.2,38.7,30.06,SE,143,2.2,4.6,34,0.00,OVC,,0.00,446.0,WeatherDisplay:10.37,2013-03-29 22:22:00,
2013-03-29 17:25:00,68.2,38.7,30.06,East,100,2.9,4.6,34,0.00,OVC,,0.00,438.0,WeatherDisplay:10.37,2013-03-29 22:25:00,
2013-03-29 17:27:00,68.3,37.3,30.06,South,169,4.8,8.1,32,0.00,OVC,,0.00,434.0,WeatherDisplay:10.37,2013-03-29 22:27:00,
2013-03-29 17:30:00,68.0,37.0,30.06,East,86,5.4,9.2,32,0.00,OVC,,0.00,424.0,WeatherDisplay:10.37,2013-03-29 22:30:00,
2013-03-29 17:32:00,67.6,36.7,30.07,ESE,111,2.5,6.9,32,0.00,OVC,,0.00,417.0,WeatherDisplay:10.37,2013-03-29 22:32:00,
2013-03-29 17:33:00,67.6,36.7,30.07,ESE,115,2.2,3.5,32,0.00,OVC,,0.00,417.0,WeatherDisplay:10.37,2013-03-29 22:33:00,
2013-03-29 17:35:00,67.5,38.1,30.07,SSE,157,5.1,8.1,34,0.00,OVC,,0.00,406.0,WeatherDisplay:10.37,2013-03-29 22:35:00,
2013-03-29 17:38:00,67.4,38.0,30.07,SE,137,4.6,6.9,34,0.00,OVC,,0.00,397.0,WeatherDisplay:10.37,2013-03-29 22:38:00,
2013-03-29 17:40:00,67.2,38.6,30.06,ENE,74,1.8,5.8,35,0.00,OVC,,0.00,387.0,WeatherDisplay:10.37,2013-03-29 22:40:00,
2013-03-29 17:41:00,67.2,38.6,30.07,ESE,117,1.3,3.5,35,0.00,OVC,,0.00,387.0,WeatherDisplay:10.37,2013-03-29 22:41:00,
2013-03-29 17:43:00,67.4,38.0,30.06,SE,138,3.0,6.9,34,0.00,OVC,,0.00,378.0,WeatherDisplay:10.37,2013-03-29 22:43:00,
2013-03-29 17:45:00,67.4,38.0,30.07,SSE,166,3.3,6.9,34,0.00,OVC,,0.00,371.0,WeatherDisplay:10.37,2013-03-29 22:45:00,
2013-03-29 17:46:00,67.3,38.0,30.07,SE,127,3.1,5.0,34,0.00,OVC,,0.00,371.0,WeatherDisplay:10.37,2013-03-29 22:46:00,
2013-03-29 17:48:00,67.2,38.6,30.07,South,170,5.7,5.8,35,0.00,OVC,,0.00,360.0,WeatherDisplay:10.37,2013-03-29 22:48:00,
2013-03-29 17:49:00,67.2,38.6,30.07,SSE,164,5.5,9.2,35,0.00,OVC,,0.00,357.0,WeatherDisplay:10.37,2013-03-29 22:49:00,
2013-03-29 17:50:00,67.1,38.5,30.06,SSE,159,3.9,5.8,35,0.00,OVC,,0.00,350.0,WeatherDisplay:10.37,2013-03-29 22:50:00,
2013-03-29 17:51:00,67.2,38.6,30.06,SSE,159,2.6,4.6,35,0.00,OVC,,0.00,350.0,WeatherDisplay:10.37,2013-03-29 22:51:00,
2013-03-29 17:53:00,67.4,38.8,30.06,SSE,166,2.3,2.3,35,0.00,OVC,,0.00,341.0,WeatherDisplay:10.37,2013-03-29 22:53:00,
2013-03-29 17:54:00,67.3,38.7,30.06,East,90,2.4,3.5,35,0.00,OVC,,0.00,341.0,WeatherDisplay:10.37,2013-03-29 22:54:00,
2013-03-29 17:56:00,67.2,38.6,30.07,SSE,158,2.8,4.6,35,0.00,OVC,,0.00,332.0,WeatherDisplay:10.37,2013-03-29 22:56:00,
2013-03-29 17:57:00,67.2,38.6,30.07,SE,134,2.9,4.0,35,0.00,OVC,,0.00,332.0,WeatherDisplay:10.37,2013-03-29 22:57:00,
2013-03-29 17:58:00,67.3,38.7,30.07,SSE,161,3.8,8.1,35,0.00,OVC,,0.00,325.0,WeatherDisplay:10.37,2013-03-29 22:58:00,
2013-03-29 17:59:00,67.3,38.7,30.06,SE,146,5.1,9.0,35,0.00,OVC,,0.00,323.0,WeatherDisplay:10.37,2013-03-29 22:59:00,
2013-03-29 18:01:00,67.1,38.5,30.07,SE,140,4.8,8.1,35,0.00,CLR,,0.00,313.0,WeatherDisplay:10.37,2013-03-29 23:01:00,
2013-03-29 18:02:00,67.0,39.1,30.06,ESE,113,3.2,8.1,36,0.00,CLR,,0.00,309.0,WeatherDisplay:10.37,2013-03-29 23:02:00,
2013-03-29 18:04:00,66.9,39.1,30.06,SE,134,3.0,6.9,36,0.00,CLR,,0.00,304.0,WeatherDisplay:10.37,2013-03-29 23:04:00,
2013-03-29 18:07:00,66.8,39.7,30.06,SE,133,5.2,8.1,37,0.00,CLR,,0.00,295.0,WeatherDisplay:10.37,2013-03-29 23:07:00,
2013-03-29 18:08:00,66.8,39.7,30.06,SE,137,5.1,8.1,37,0.00,CLR,,0.00,290.0,WeatherDisplay:10.37,2013-03-29 23:08:00,
2013-03-29 18:09:00,66.7,39.6,30.06,SE,132,3.2,5.0,37,0.00,CLR,,0.00,287.0,WeatherDisplay:10.37,2013-03-29 23:09:00,
2013-03-29 18:12:00,66.5,40.1,30.06,SSE,167,3.5,6.9,38,0.00,CLR,,0.00,271.0,WeatherDisplay:10.37,2013-03-29 23:12:00,
2013-03-29 18:13:00,66.5,40.1,30.06,SSE,148,2.2,4.6,38,0.00,CLR,,0.00,267.0,WeatherDisplay:10.37,2013-03-29 23:13:00,
2013-03-29 18:14:00,66.4,40.7,30.06,SSE,159,1.5,3.5,39,0.00,CLR,,0.00,264.0,WeatherDisplay:10.37,2013-03-29 23:14:00,
2013-03-29 18:15:00,66.4,40.0,30.06,SSE,162,3.9,7.0,38,0.00,CLR,,0.00,258.0,WeatherDisplay:10.37,2013-03-29 23:15:00,
2013-03-29 18:18:00,66.3,39.9,30.06,ESE,114,6.1,6.1,38,0.00,CLR,,0.00,246.0,WeatherDisplay:10.37,2013-03-29 23:18:00,
2013-03-29 18:19:00,66.2,39.8,30.06,SE,133,2.0,4.6,38,0.00,CLR,,0.00,244.0,WeatherDisplay:10.37,2013-03-29 23:19:00,
2013-03-29 18:20:00,66.2,39.8,30.06,ESE,107,2.7,4.6,38,0.00,CLR,,0.00,239.0,WeatherDisplay:10.37,2013-03-29 23:20:00,
2013-03-29 18:23:00,66.2,40.5,30.06,ENE,70,3.3,3.5,39,0.00,CLR,,0.00,229.0,WeatherDisplay:10.37,2013-03-29 23:23:00,
2013-03-29 18:24:00,66.1,39.7,30.06,SE,136,3.7,6.9,38,0.00,CLR,,0.00,220.0,WeatherDisplay:10.37,2013-03-29 23:24:00,
2013-03-29 18:25:00,66.1,39.1,30.06,East,85,4.4,5.8,37,0.00,CLR,,0.00,218.0,WeatherDisplay:10.37,2013-03-29 23:25:00,
2013-03-29 18:28:00,65.9,39.6,30.06,South,187,4.4,8.1,38,0.00,CLR,,0.00,204.0,WeatherDisplay:10.37,2013-03-29 23:28:00,
2013-03-29 18:30:00,65.9,40.2,30.06,ENE,74,1.7,4.0,39,0.00,CLR,,0.00,197.0,WeatherDisplay:10.37,2013-03-29 23:30:00,
2013-03-29 18:33:00,65.9,39.6,30.06,SE,131,5.1,6.9,38,0.00,CLR,,0.00,181.0,WeatherDisplay:10.37,2013-03-29 23:33:00,
2013-03-29 18:35:00,65.8,39.5,30.06,SE,126,3.6,5.8,38,0.00,CLR,,0.00,174.0,WeatherDisplay:10.37,2013-03-29 23:35:00,
2013-03-29 18:36:00,65.8,40.1,30.07,SE,132,2.4,5.8,39,0.00,CLR,,0.00,171.0,WeatherDisplay:10.37,2013-03-29 23:36:00,
2013-03-29 18:38:00,65.7,39.4,30.07,East,94,1.4,2.3,38,0.00,CLR,,0.00,163.0,WeatherDisplay:10.37,2013-03-29 23:38:00,
2013-03-29 18:39:00,65.7,39.4,30.07,ESE,121,3.8,4.0,38,0.00,CLR,,0.00,158.0,WeatherDisplay:10.37,2013-03-29 23:39:00,
2013-03-29 18:40:00,65.6,39.3,30.07,SE,126,3.3,8.1,38,0.00,CLR,,0.00,155.0,WeatherDisplay:10.37,2013-03-29 23:40:00,
2013-03-29 18:42:00,65.5,39.2,30.06,SSE,161,5.0,10.0,38,0.00,CLR,,0.00,146.0,WeatherDisplay:10.37,2013-03-29 23:42:00,
2013-03-29 18:43:00,65.5,38.5,30.07,ENE,70,4.1,10.4,37,0.00,CLR,,0.00,142.0,WeatherDisplay:10.37,2013-03-29 23:43:00,
2013-03-29 18:44:00,65.4,38.4,30.07,SE,135,5.0,6.9,37,0.00,CLR,,0.00,135.0,WeatherDisplay:10.37,2013-03-29 23:44:00,
2013-03-29 18:45:00,65.3,39.0,30.07,East,95,3.3,9.2,38,0.00,CLR,,0.00,132.0,WeatherDisplay:10.37,2013-03-29 23:45:00,
2013-03-29 18:47:00,65.2,38.9,30.07,East,88,4.3,8.1,38,0.00,CLR,,0.00,125.0,WeatherDisplay:10.37,2013-03-29 23:47:00,
2013-03-29 18:48:00,65.1,39.5,30.07,ESE,109,3.5,6.9,39,0.00,CLR,,0.00,123.0,WeatherDisplay:10.37,2013-03-29 23:48:00,
2013-03-29 18:49:00,65.0,39.4,30.07,SE,146,4.1,5.0,39,0.00,CLR,,0.00,116.0,WeatherDisplay:10.37,2013-03-29 23:49:00,
2013-03-29 18:50:00,65.0,39.4,30.07,SE,130,3.5,5.8,39,0.00,CLR,,0.00,114.0,WeatherDisplay:10.37,2013-03-29 23:50:00,
2013-03-29 18:52:00,65.0,39.4,30.07,ESE,119,3.0,4.6,39,0.00,CLR,,0.00,107.0,WeatherDisplay:10.37,2013-03-29 23:52:00,
2013-03-29 18:53:00,65.0,39.4,30.07,East,94,2.1,4.6,39,0.00,CLR,,0.00,104.0,WeatherDisplay:10.37,2013-03-29 23:53:00,
2013-03-29 18:54:00,64.9,39.3,30.07,ESE,122,3.2,4.6,39,0.00,CLR,,0.00,97.0,WeatherDisplay:10.37,2013-03-29 23:54:00,
2013-03-29 18:55:00,64.9,39.3,30.07,ESE,121,2.1,4.6,39,0.00,CLR,,0.00,95.0,WeatherDisplay:10.37,2013-03-29 23:55:00,
2013-03-29 18:57:00,64.9,40.0,30.07,ESE,114,2.3,4.0,40,0.00,CLR,,0.00,77.0,WeatherDisplay:10.37,2013-03-29 23:57:00,
2013-03-29 18:58:00,64.8,39.2,30.07,SE,124,3.2,3.5,39,0.00,FEW,,0.00,67.0,WeatherDisplay:10.37,2013-03-29 23:58:00,
2013-03-29 19:00:00,64.8,39.2,30.07,SSE,154,2.5,5.8,39,0.00,SCT,,0.00,53.0,WeatherDisplay:10.37,2013-03-30 00:00:00,
2013-03-29 19:03:00,64.5,39.6,30.07,East,95,3.3,6.0,40,0.00,BKN,,0.00,33.0,WeatherDisplay:10.37,2013-03-30 00:03:00,
2013-03-29 19:05:00,64.5,39.0,30.07,East,84,1.9,5.0,39,0.00,BKN,,0.00,33.0,WeatherDisplay:10.37,2013-03-30 00:05:00,
2013-03-29 19:08:00,64.3,39.4,30.07,ESE,121,4.2,5.8,40,0.00,BKN,,0.00,28.0,WeatherDisplay:10.37,2013-03-30 00:08:00,
2013-03-29 19:10:00,64.2,38.7,30.07,ESE,106,2.0,5.8,39,0.00,BKN,,0.00,26.0,WeatherDisplay:10.37,2013-03-30 00:10:00,
2013-03-29 19:11:00,64.1,38.6,30.07,ESE,106,1.2,2.3,39,0.00,BKN,,0.00,26.0,WeatherDisplay:10.37,2013-03-30 00:11:00,
2013-03-29 19:13:00,64.0,39.2,30.07,SE,133,2.5,4.0,40,0.00,BKN,,0.00,25.0,WeatherDisplay:10.37,2013-03-30 00:13:00,
2013-03-29 19:14:00,64.0,38.5,30.07,SSE,147,2.9,4.6,39,0.00,BKN,,0.00,25.0,WeatherDisplay:10.37,2013-03-30 00:14:00,
2013-03-29 19:15:00,63.9,39.1,30.07,ESE,105,1.0,3.5,40,0.00,BKN,,0.00,23.0,WeatherDisplay:10.37,2013-03-30 00:15:00,
2013-03-29 19:17:00,63.7,38.9,30.07,SE,135,2.2,3.5,40,0.00,BKN,,0.00,21.0,WeatherDisplay:10.37,2013-03-30 00:17:00,
2013-03-29 19:18:00,63.7,39.5,30.07,SE,135,0.9,3.5,41,0.00,BKN,,0.00,19.0,WeatherDisplay:10.37,2013-03-30 00:18:00,
2013-03-29 19:19:00,63.6,38.8,30.07,SE,135,0.6,1.2,40,0.00,BKN,,0.00,19.0,WeatherDisplay:10.37,2013-03-30 00:19:00,
2013-03-29 19:20:00,63.5,38.7,30.07,SE,135,0.0,0.0,40,0.00,BKN,,0.00,19.0,WeatherDisplay:10.37,2013-03-30 00:20:00,
2013-03-29 19:22:00,63.2,38.5,30.07,SE,127,2.8,5.8,40,0.00,BKN,,0.00,18.0,WeatherDisplay:10.37,2013-03-30 00:22:00,
2013-03-29 19:23:00,63.2,38.5,30.07,ESE,119,2.3,5.8,40,0.00,BKN,,0.00,16.0,WeatherDisplay:10.37,2013-03-30 00:23:00,
2013-03-29 19:24:00,63.2,38.5,30.07,ESE,119,1.4,3.5,40,0.00,BKN,,0.00,16.0,WeatherDisplay:10.37,2013-03-30 00:24:00,
2013-03-29 19:25:00,63.1,38.4,30.07,SE,126,0.8,1.2,40,0.00,BKN,,0.00,14.0,WeatherDisplay:10.37,2013-03-30 00:25:00,
2013-03-29 19:27:00,63.0,38.3,30.07,ESE,117,2.0,3.5,40,0.00,BKN,,0.00,12.0,WeatherDisplay:10.37,2013-03-30 00:27:00,
2013-03-29 19:29:00,63.0,38.3,30.07,SE,140,2.1,3.5,40,0.00,BKN,,0.00,12.0,WeatherDisplay:10.37,2013-03-30 00:29:00,
2013-03-29 19:31:00,63.0,38.9,30.06,SSE,156,1.2,2.3,41,0.00,BKN,,0.00,11.0,WeatherDisplay:10.37,2013-03-30 00:31:00,
2013-03-29 19:32:00,62.8,38.7,30.06,SSW,200,1.3,2.0,41,0.00,CLR,,0.00,9.0,WeatherDisplay:10.37,2013-03-30 00:32:00,
2013-03-29 19:34:00,62.8,38.7,30.06,SE,132,1.2,2.3,41,0.00,CLR,,0.00,7.0,WeatherDisplay:10.37,2013-03-30 00:34:00,
2013-03-29 19:36:00,62.6,38.6,30.06,ESE,111,0.3,2.3,41,0.00,CLR,,0.00,5.0,WeatherDisplay:10.37,2013-03-30 00:36:00,
2013-03-29 19:38:00,62.4,39.0,30.06,ESE,111,0.4,1.2,42,0.00,CLR,,0.00,5.0,WeatherDisplay:10.37,2013-03-30 00:38:00,
2013-03-29 19:39:00,62.4,39.0,30.06,ESE,111,1.3,2.3,42,0.00,CLR,,0.00,0.0,WeatherDisplay:10.37,2013-03-30 00:39:00,
2013-03-29 19:42:00,62.1,38.7,30.07,ESE,113,1.0,2.3,42,0.00,CLR,,0.00,0.0,WeatherDisplay:10.37,2013-03-30 00:42:00,
2013-03-29 19:43:00,62.1,38.7,30.07,ESE,113,0.1,1.2,42,0.00,CLR,,0.00,0.0,WeatherDisplay:10.37,2013-03-30 00:43:00,
2013-03-29 19:44:00,62.1,38.7,30.07,East,98,0.9,2.3,42,0.00,CLR,,0.00,0.0,WeatherDisplay:10.37,2013-03-30 00:44:00,
2013-03-29 19:48:00,61.8,39.1,30.07,ESE,113,0.0,1.2,43,0.00,CLR,,0.00,0.0,WeatherDisplay:10.37,2013-03-30 00:48:00,
2013-03-29 19:49:00,61.7,39.0,30.07,ESE,115,0.7,1.2,43,0.00,CLR,,0.00,0.0,WeatherDisplay:10.37,2013-03-30 00:49:00,
2013-03-29 19:50:00,61.6,38.9,30.07,ESE,115,1.0,2.3,43,0.00,CLR,,0.00,0.0,WeatherDisplay:10.37,2013-03-30 00:50:00,
2013-03-29 19:53:00,61.5,39.4,30.07,ESE,115,0.3,2.3,44,0.00,CLR,,0.00,0.0,WeatherDisplay:10.37,2013-03-30 00:53:00,
2013-03-29 19:54:00,61.4,39.3,30.07,ESE,113,1.0,2.0,44,0.00,CLR,,0.00,0.0,WeatherDisplay:10.37,2013-03-30 00:54:00,
2013-03-29 19:55:00,61.3,39.2,30.07,ESE,113,0.2,3.5,44,0.00,CLR,,0.00,0.0,WeatherDisplay:10.37,2013-03-30 00:55:00,
2013-03-29 19:58:00,61.1,39.0,30.07,ESE,113,0.0,1.2,44,0.00,CLR,,0.00,0.0,WeatherDisplay:10.37,2013-03-30 00:58:00,
2013-03-29 19:59:00,61.0,39.5,30.07,ESE,113,0.0,0.0,45,0.00,CLR,,0.00,0.0,WeatherDisplay:10.37,2013-03-30 00:59:00,
2013-03-29 20:00:00,60.7,39.2,30.07,South,178,0.5,1.0,45,0.00,CLR,,0.00,0.0,WeatherDisplay:10.37,2013-03-30 01:00:00,
2013-03-29 20:03:00,60.4,39.5,30.07,South,178,0.3,1.2,46,0.00,CLR,,0.00,0.0,WeatherDisplay:10.37,2013-03-30 01:03:00,
2013-03-29 20:04:00,60.3,38.9,30.07,South,178,0.2,1.2,45,0.00,CLR,,0.00,0.0,WeatherDisplay:10.37,2013-03-30 01:04:00,
2013-03-29 20:06:00,60.2,38.8,30.07,South,178,0.9,2.3,45,0.00,CLR,,0.00,0.0,WeatherDisplay:10.37,2013-03-30 01:06:00,
2013-03-29 20:08:00,60.0,39.1,30.07,SE,136,1.8,2.3,46,0.00,CLR,,0.00,0.0,WeatherDisplay:10.37,2013-03-30 01:08:00,
2013-03-29 20:09:00,60.0,38.6,30.07,SE,136,1.3,3.5,45,0.00,CLR,,0.00,0.0,WeatherDisplay:10.37,2013-03-30 01:09:00,
2013-03-29 20:10:00,59.9,39.1,30.07,South,169,0.7,3.5,46,0.00,CLR,,0.00,0.0,WeatherDisplay:10.37,2013-03-30 01:10:00,
2013-03-29 20:11:00,59.9,38.5,30.07,SSE,168,1.5,3.5,45,0.00,CLR,,0.00,0.0,WeatherDisplay:10.37,2013-03-30 01:11:00,
2013-03-29 20:13:00,59.9,39.1,30.07,South,174,2.3,3.5,46,0.00,CLR,,0.00,0.0,WeatherDisplay:10.37,2013-03-30 01:13:00,
2013-03-29 20:14:00,59.8,39.0,30.07,South,174,1.7,3.5,46,0.00,CLR,,0.00,0.0,WeatherDisplay:10.37,2013-03-30 01:14:00,
2013-03-29 20:15:00,59.8,39.0,30.07,South,174,1.8,3.5,46,0.00,CLR,,0.00,0.0,WeatherDisplay:10.37,2013-03-30 01:15:00,
2013-03-29 20:16:00,59.7,38.9,30.07,South,173,0.2,1.2,46,0.00,CLR,,0.00,0.0,WeatherDisplay:10.37,2013-03-30 01:16:00,
2013-03-29 20:18:00,59.6,39.3,30.07,South,173,0.0,0.0,47,0.00,CLR,,0.00,0.0,WeatherDisplay:10.37,2013-03-30 01:18:00,
2013-03-29 20:19:00,59.5,39.8,30.07,South,173,0.1,1.0,48,0.00,CLR,,0.00,0.0,WeatherDisplay:10.37,2013-03-30 01:19:00,
2013-03-29 20:20:00,59.4,39.1,30.07,South,173,0.4,1.2,47,0.00,CLR,,0.00,0.0,WeatherDisplay:10.37,2013-03-30 01:20:00,
2013-03-29 20:22:00,59.2,39.5,30.07,South,173,0.0,0.0,48,0.00,CLR,,0.00,0.0,WeatherDisplay:10.37,2013-03-30 01:22:00,
2013-03-29 20:23:00,59.1,39.4,30.08,South,173,0.4,1.2,48,0.00,CLR,,0.00,0.0,WeatherDisplay:10.37,2013-03-30 01:23:00,
2013-03-29 20:24:00,59.0,39.3,30.07,South,182,0.8,2.3,48,0.00,CLR,,0.00,0.0,WeatherDisplay:10.37,2013-03-30 01:24:00,
2013-03-29 20:25:00,58.9,39.2,30.07,South,178,0.7,2.3,48,0.00,CLR,,0.00,0.0,WeatherDisplay:10.37,2013-03-30 01:25:00,
2013-03-29 20:27:00,58.8,39.7,30.07,South,178,0.5,1.2,49,0.00,CLR,,0.00,0.0,WeatherDisplay:10.37,2013-03-30 01:27:00,
2013-03-29 20:28:00,58.7,39.0,30.08,SSE,159,0.9,3.5,48,0.00,CLR,,0.00,0.0,WeatherDisplay:10.37,2013-03-30 01:28:00,
2013-03-29 20:29:00,58.7,40.1,30.08,SSE,159,0.1,3.5,50,0.00,CLR,,0.00,0.0,WeatherDisplay:10.37,2013-03-30 01:29:00,
2013-03-29 20:30:00,58.6,40.5,30.08,SSE,159,0.0,1.2,51,0.00,CLR,,0.00,0.0,WeatherDisplay:10.37,2013-03-30 01:30:00,
2013-03-29 20:32:00,58.4,39.8,30.08,SSE,159,0.0,1.2,50,0.00,CLR,,0.00,0.0,WeatherDisplay:10.37,2013-03-30 01:32:00,
2013-03-29 20:34:00,58.4,39.8,30.08,SSE,159,0.2,1.2,50,0.00,CLR,,0.00,0.0,WeatherDisplay:10.37,2013-03-30 01:34:00,
2013-03-29 20:36:00,58.2,40.1,30.08,SSE,159,0.0,1.2,51,0.00,CLR,,0.00,0.0,WeatherDisplay:10.37,2013-03-30 01:36:00,
2013-03-29 20:37:00,58.1,39.5,30.08,SSE,159,0.0,0.0,50,0.00,CLR,,0.00,0.0,WeatherDisplay:10.37,2013-03-30 01:37:00,
2013-03-29 20:39:00,58.0,40.0,30.08,SSE,159,0.0,0.0,51,0.00,CLR,,0.00,0.0,WeatherDisplay:10.37,2013-03-30 01:39:00,
2013-03-29 20:41:00,57.9,39.9,30.08,SSE,159,0.0,0.0,51,0.00,CLR,,0.00,0.0,WeatherDisplay:10.37,2013-03-30 01:41:00,
2013-03-29 20:43:00,57.6,40.1,30.08,SSE,159,0.0,0.0,52,0.00,CLR,,0.00,0.0,WeatherDisplay:10.37,2013-03-30 01:43:00,
2013-03-29 20:44:00,57.5,39.5,30.08,SSE,159,0.0,0.0,51,0.00,CLR,,0.00,0.0,WeatherDisplay:10.37,2013-03-30 01:44:00,
2013-03-29 20:46:00,57.3,39.8,30.08,SSE,159,0.0,0.0,52,0.00,CLR,,0.00,0.0,WeatherDisplay:10.37,2013-03-30 01:46:00,
2013-03-29 20:48:00,57.0,40.5,30.08,SSE,159,0.0,0.0,54,0.00,CLR,,0.00,0.0,WeatherDisplay:10.37,2013-03-30 01:48:00,
2013-03-29 20:49:00,56.8,40.8,30.08,SSE,159,0.0,0.0,55,0.00,CLR,,0.00,0.0,WeatherDisplay:10.37,2013-03-30 01:49:00,
2013-03-29 20:50:00,56.7,40.7,30.08,SSE,159,0.0,0.0,55,0.00,CLR,,0.00,0.0,WeatherDisplay:10.37,2013-03-30 01:50:00,
2013-03-29 20:51:00,56.6,40.6,30.08,SSE,159,0.0,0.0,55,0.00,CLR,,0.00,0.0,WeatherDisplay:10.37,2013-03-30 01:51:00,
2013-03-29 20:53:00,56.2,40.2,30.08,SSE,159,0.0,0.0,55,0.00,CLR,,0.00,0.0,WeatherDisplay:10.37,2013-03-30 01:53:00,
2013-03-29 20:54:00,56.1,40.2,30.08,SSE,159,0.0,0.0,55,0.00,CLR,,0.00,0.0,WeatherDisplay:10.37,2013-03-30 01:54:00,
2013-03-29 20:55:00,56.1,40.1,30.08,SSE,159,0.0,0.0,55,0.00,CLR,,0.00,0.0,WeatherDisplay:10.37,2013-03-30 01:55:00,
2013-03-29 20:57:00,55.9,40.4,30.08,SSE,159,0.0,0.0,56,0.00,CLR,,0.00,0.0,WeatherDisplay:10.37,2013-03-30 01:57:00,
2013-03-29 20:59:00,55.6,40.6,30.08,SSE,159,0.0,0.0,57,0.00,CLR,,0.00,0.0,WeatherDisplay:10.37,2013-03-30 01:59:00,
2013-03-29 21:00:00,55.5,41.0,30.08,SSE,159,0.0,0.0,58,0.00,CLR,,0.00,0.0,WeatherDisplay:10.37,2013-03-30 02:00:00,
2013-03-29 21:02:00,55.2,41.5,30.08,SSE,159,0.0,0.0,60,0.00,CLR,,0.00,0.0,WeatherDisplay:10.37,2013-03-30 02:02:00,
2013-03-29 21:04:00,55.2,40.7,30.08,SSE,159,0.0,0.0,58,0.00,CLR,,0.00,0.0,WeatherDisplay:10.37,2013-03-30 02:04:00,
2013-03-29 21:05:00,55.2,40.7,30.08,SSE,159,0.0,0.0,58,0.00,CLR,,0.00,0.0,WeatherDisplay:10.37,2013-03-30 02:05:00,
2013-03-29 21:07:00,55.0,40.5,30.08,SSE,159,0.0,0.0,58,0.00,CLR,,0.00,0.0,WeatherDisplay:10.37,2013-03-30 02:07:00,
2013-03-29 21:09:00,54.7,41.1,30.08,SSE,159,0.0,0.0,60,0.00,CLR,,0.00,0.0,WeatherDisplay:10.37,2013-03-30 02:09:00,
2013-03-29 21:10:00,54.6,40.6,30.08,SSE,159,0.0,0.0,59,0.00,CLR,,0.00,0.0,WeatherDisplay:10.37,2013-03-30 02:10:00,
2013-03-29 21:12:00,54.4,40.4,30.08,SSE,159,0.0,0.0,59,0.00,CLR,,0.00,0.0,WeatherDisplay:10.37,2013-03-30 02:12:00,
2013-03-29 21:14:00,54.2,40.2,30.08,SSE,159,0.0,0.0,59,0.00,CLR,,0.00,0.0,WeatherDisplay:10.37,2013-03-30 02:14:00,
2013-03-29 21:15:00,54.2,40.2,30.08,SSE,159,0.0,0.0,59,0.00,CLR,,0.00,0.0,WeatherDisplay:10.37,2013-03-30 02:15:00,
2013-03-29 21:18:00,54.1,40.9,30.08,SSE,159,0.0,0.0,61,0.00,CLR,,0.00,0.0,WeatherDisplay:10.37,2013-03-30 02:18:00,
2013-03-29 21:19:00,53.9,40.8,30.08,SSE,159,0.0,0.0,61,0.00,CLR,,0.00,0.0,WeatherDisplay:10.37,2013-03-30 02:19:00,
2013-03-29 21:20:00,53.9,41.2,30.08,SSE,159,0.0,0.0,62,0.00,CLR,,0.00,0.0,WeatherDisplay:10.37,2013-03-30 02:20:00,
2013-03-29 21:21:00,53.8,41.1,30.08,SSE,159,0.0,0.0,62,0.00,CLR,,0.00,0.0,WeatherDisplay:10.37,2013-03-30 02:21:00,
2013-03-29 21:23:00,53.7,41.0,30.08,SSE,159,0.0,0.0,62,0.00,CLR,,0.00,0.0,WeatherDisplay:10.37,2013-03-30 02:23:00,
2013-03-29 21:25:00,53.5,40.4,30.08,SSE,159,0.0,0.0,61,0.00,CLR,,0.00,0.0,WeatherDisplay:10.37,2013-03-30 02:25:00,
2013-03-29 21:27:00,53.3,40.6,30.08,SSE,159,0.0,0.0,62,0.00,CLR,,0.00,0.0,WeatherDisplay:10.37,2013-03-30 02:27:00,
2013-03-29 21:28:00,53.2,40.9,30.08,SSE,159,0.0,0.0,63,0.00,CLR,,0.00,0.0,WeatherDisplay:10.37,2013-03-30 02:28:00,
2013-03-29 21:30:00,53.2,40.9,30.08,SSE,159,0.2,1.0,63,0.00,CLR,,0.00,0.0,WeatherDisplay:10.37,2013-03-30 02:30:00,
2013-03-29 21:32:00,53.3,41.0,30.08,SSE,159,0.0,0.0,63,0.00,CLR,,0.00,0.0,WeatherDisplay:10.37,2013-03-30 02:32:00,
2013-03-29 21:33:00,53.3,40.6,30.08,SSE,159,0.0,0.0,62,0.00,CLR,,0.00,0.0,WeatherDisplay:10.37,2013-03-30 02:33:00,
2013-03-29 21:35:00,53.3,41.4,30.08,SSE,159,0.0,0.0,64,0.00,CLR,,0.00,0.0,WeatherDisplay:10.37,2013-03-30 02:35:00,
2013-03-29 21:37:00,53.3,41.4,30.08,SSE,159,0.0,0.0,64,0.00,CLR,,0.00,0.0,WeatherDisplay:10.37,2013-03-30 02:37:00,
2013-03-29 21:38:00,53.2,40.5,30.08,SSE,159,0.5,1.2,62,0.00,CLR,,0.00,0.0,WeatherDisplay:10.37,2013-03-30 02:38:00,
2013-03-29 21:40:00,53.3,41.4,30.08,SSE,159,0.0,1.2,64,0.00,CLR,,0.00,0.0,WeatherDisplay:10.37,2013-03-30 02:40:00,
2013-03-29 21:42:00,53.4,41.5,30.08,SSE,159,0.8,2.3,64,0.00,CLR,,0.00,0.0,WeatherDisplay:10.37,2013-03-30 02:42:00,
2013-03-29 21:44:00,53.3,41.4,30.08,SSE,159,0.1,1.2,64,0.00,CLR,,0.00,0.0,WeatherDisplay:10.37,2013-03-30 02:44:00,
2013-03-29 21:45:00,53.3,41.8,30.08,SSE,159,0.0,0.0,65,0.00,CLR,,0.00,0.0,WeatherDisplay:10.37,2013-03-30 02:45:00,
2013-03-29 21:47:00,53.3,41.8,30.08,SSE,159,0.0,0.0,65,0.00,CLR,,0.00,0.0,WeatherDisplay:10.37,2013-03-30 02:47:00,
2013-03-29 21:49:00,53.3,41.8,30.08,SSE,159,0.0,0.0,65,0.00,CLR,,0.00,0.0,WeatherDisplay:10.37,2013-03-30 02:49:00,
2013-03-29 21:50:00,53.2,41.7,30.08,SSE,159,0.0,0.0,65,0.00,CLR,,0.00,0.0,WeatherDisplay:10.37,2013-03-30 02:50:00,
2013-03-29 21:51:00,53.2,41.7,30.08,SSE,159,0.0,0.0,65,0.00,CLR,,0.00,0.0,WeatherDisplay:10.37,2013-03-30 02:51:00,
2013-03-29 21:53:00,53.3,42.6,30.08,ESE,123,1.6,3.5,67,0.00,CLR,,0.00,0.0,WeatherDisplay:10.37,2013-03-30 02:53:00,
2013-03-29 21:54:00,53.6,42.5,30.08,ESE,123,0.9,2.3,66,0.00,CLR,,0.00,0.0,WeatherDisplay:10.37,2013-03-30 02:54:00,
2013-03-29 21:56:00,53.9,42.8,30.08,ESE,123,0.0,0.0,66,0.00,CLR,,0.00,0.0,WeatherDisplay:10.37,2013-03-30 02:56:00,
2013-03-29 21:58:00,54.0,42.5,30.08,ESE,123,0.3,2.0,65,0.00,CLR,,0.00,0.0,WeatherDisplay:10.37,2013-03-30 02:58:00,
2013-03-29 21:59:00,54.0,42.5,30.08,ESE,123,0.0,2.3,65,0.00,CLR,,0.00,0.0,WeatherDisplay:10.37,2013-03-30 02:59:00,
2013-03-29 22:01:00,54.0,42.9,30.08,ESE,123,0.0,0.0,66,0.00,CLR,,0.00,0.0,WeatherDisplay:10.37,2013-03-30 03:01:00,
2013-03-29 22:02:00,54.1,43.0,30.08,SE,124,0.0,1.0,66,0.00,CLR,,0.00,0.0,WeatherDisplay:10.37,2013-03-30 03:02:00,
2013-03-29 22:03:00,54.4,43.3,30.08,South,178,2.1,2.3,66,0.00,CLR,,0.00,0.0,WeatherDisplay:10.37,2013-03-30 03:03:00,
2013-03-29 22:04:00,54.4,42.9,30.08,SSE,152,2.0,3.0,65,0.00,CLR,,0.00,0.0,WeatherDisplay:10.37,2013-03-30 03:04:00,
2013-03-29 22:06:00,54.6,43.5,30.08,SSE,163,0.7,2.3,66,0.00,CLR,,0.00,0.0,WeatherDisplay:10.37,2013-03-30 03:06:00,
2013-03-29 22:07:00,54.6,43.5,30.08,SSE,163,1.0,1.2,66,0.00,CLR,,0.00,0.0,WeatherDisplay:10.37,2013-03-30 03:07:00,
2013-03-29 22:09:00,54.5,43.4,30.08,SSE,163,0.0,0.0,66,0.00,CLR,,0.00,0.0,WeatherDisplay:10.37,2013-03-30 03:09:00,
2013-03-29 22:10:00,54.5,43.4,30.08,SSE,163,0.0,1.2,66,0.00,CLR,,0.00,0.0,WeatherDisplay:10.37,2013-03-30 03:10:00,
2013-03-29 22:12:00,54.3,43.2,30.08,SSE,163,0.1,1.2,66,0.00,CLR,,0.00,0.0,WeatherDisplay:10.37,2013-03-30 03:12:00,
2013-03-29 22:14:00,54.2,43.5,30.08,SSE,163,0.4,1.2,67,0.00,CLR,,0.00,0.0,WeatherDisplay:10.37,2013-03-30 03:14:00,
2013-03-29 22:15:00,54.3,43.2,30.08,SSE,163,0.3,1.2,66,0.00,CLR,,0.00,0.0,WeatherDisplay:10.37,2013-03-30 03:15:00,
2013-03-29 22:17:00,54.2,43.1,30.08,SSE,163,0.4,1.2,66,0.00,CLR,,0.00,0.0,WeatherDisplay:10.37,2013-03-30 03:17:00,
2013-03-29 22:19:00,54.0,43.3,30.08,SSE,163,0.0,0.0,67,0.00,CLR,,0.00,0.0,WeatherDisplay:10.37,2013-03-30 03:19:00,
2013-03-29 22:20:00,54.0,43.7,30.07,SSE,165,0.8,3.0,68,0.00,CLR,,0.00,0.0,WeatherDisplay:10.37,2013-03-30 03:20:00,
2013-03-29 22:22:00,54.0,43.7,30.08,SSE,165,0.1,2.3,68,0.00,CLR,,0.00,0.0,WeatherDisplay:10.37,2013-03-30 03:22:00,
2013-03-29 22:24:00,54.0,43.7,30.08,SSE,165,0.0,0.0,68,0.00,CLR,,0.00,0.0,WeatherDisplay:10.37,2013-03-30 03:24:00,
2013-03-29 22:25:00,53.9,43.6,30.08,SSE,165,0.0,0.0,68,0.00,CLR,,0.00,0.0,WeatherDisplay:10.37,2013-03-30 03:25:00,
2013-03-29 22:27:00,53.8,43.9,30.08,SSE,165,0.9,2.3,69,0.00,CLR,,0.00,0.0,WeatherDisplay:10.37,2013-03-30 03:27:00,
2013-03-29 22:30:00,53.6,43.7,30.08,SSE,165,0.0,0.0,69,0.00,CLR,,0.00,0.0,WeatherDisplay:10.37,2013-03-30 03:30:00,
2013-03-29 22:32:00,53.5,44.3,30.08,SSE,165,0.9,2.3,71,0.00,CLR,,0.00,0.0,WeatherDisplay:10.37,2013-03-30 03:32:00,
2013-03-29 22:33:00,53.5,44.3,30.08,SSE,165,0.9,2.3,71,0.00,CLR,,0.00,0.0,WeatherDisplay:10.37,2013-03-30 03:33:00,
2013-03-29 22:35:00,53.6,44.4,30.08,SSE,165,0.5,1.2,71,0.00,CLR,,0.00,0.0,WeatherDisplay:10.37,2013-03-30 03:35:00,
2013-03-29 22:38:00,53.7,44.5,30.08,SSE,165,0.3,1.2,71,0.00,CLR,,0.00,0.0,WeatherDisplay:10.37,2013-03-30 03:38:00,
2013-03-29 22:40:00,53.7,44.5,30.08,SE,137,1.1,2.3,71,0.00,CLR,,0.00,0.0,WeatherDisplay:10.37,2013-03-30 03:40:00,
2013-03-29 22:42:00,53.8,44.6,30.07,SE,140,1.1,2.3,71,0.00,CLR,,0.00,0.0,WeatherDisplay:10.37,2013-03-30 03:42:00,
2013-03-29 22:43:00,53.8,44.6,30.08,SE,140,0.7,2.3,71,0.00,CLR,,0.00,0.0,WeatherDisplay:10.37,2013-03-30 03:43:00,
2013-03-29 22:45:00,53.8,45.0,30.08,SE,141,1.1,2.3,72,0.00,CLR,,0.00,0.0,WeatherDisplay:10.37,2013-03-30 03:45:00,
2013-03-29 22:48:00,53.8,45.0,30.07,SE,146,1.6,3.5,72,0.00,CLR,,0.00,0.0,WeatherDisplay:10.37,2013-03-30 03:48:00,
2013-03-29 22:50:00,53.9,45.1,30.07,SSE,147,1.0,1.2,72,0.00,CLR,,0.00,0.0,WeatherDisplay:10.37,2013-03-30 03:50:00,
2013-03-29 22:53:00,53.8,45.0,30.07,SSE,147,1.0,3.0,72,0.00,CLR,,0.00,0.0,WeatherDisplay:10.37,2013-03-30 03:53:00,
2013-03-29 22:54:00,53.7,44.9,30.07,East,94,1.2,3.5,72,0.00,CLR,,0.00,0.0,WeatherDisplay:10.37,2013-03-30 03:54:00,
2013-03-29 22:55:00,53.6,44.8,30.07,East,94,0.2,2.3,72,0.00,CLR,,0.00,0.0,WeatherDisplay:10.37,2013-03-30 03:55:00,
2013-03-29 22:58:00,53.5,45.1,30.07,East,94,0.9,1.2,73,0.00,CLR,,0.00,0.0,WeatherDisplay:10.37,2013-03-30 03:58:00,
2013-03-29 22:59:00,53.5,45.1,30.07,East,95,0.7,2.3,73,0.00,CLR,,0.00,0.0,WeatherDisplay:10.37,2013-03-30 03:59:00,
2013-03-29 23:00:00,53.5,45.1,30.07,SE,126,0.6,2.3,73,0.00,CLR,,0.00,0.0,WeatherDisplay:10.37,2013-03-30 04:00:00,
2013-03-29 23:05:00,53.6,45.2,30.07,SE,128,1.1,2.3,73,0.00,CLR,,0.00,0.0,WeatherDisplay:10.37,2013-03-30 04:05:00,
2013-03-29 23:10:00,53.8,45.0,30.07,SE,136,1.8,3.5,72,0.00,CLR,,0.00,0.0,WeatherDisplay:10.37,2013-03-30 04:10:00,
2013-03-29 23:15:00,53.8,45.0,30.07,ESE,123,2.4,3.5,72,0.00,CLR,,0.00,0.0,WeatherDisplay:10.37,2013-03-30 04:15:00,
2013-03-29 23:20:00,53.9,45.4,30.06,SE,139,1.3,3.5,73,0.00,CLR,,0.00,0.0,WeatherDisplay:10.37,2013-03-30 04:20:00,
2013-03-29 23:23:00,53.9,45.4,30.06,ESE,112,1.2,3.0,73,0.00,CLR,,0.00,0.0,WeatherDisplay:10.37,2013-03-30 04:23:00,
2013-03-29 23:25:00,53.9,45.4,30.06,SE,124,0.8,2.3,73,0.00,CLR,,0.00,0.0,WeatherDisplay:10.37,2013-03-30 04:25:00,
2013-03-29 23:26:00,53.9,45.4,30.06,ESE,106,0.9,2.3,73,0.00,CLR,,0.00,0.0,WeatherDisplay:10.37,2013-03-30 04:26:00,
2013-03-29 23:28:00,54.0,45.5,30.05,SE,130,1.1,4.6,73,0.00,CLR,,0.00,0.0,WeatherDisplay:10.37,2013-03-30 04:28:00,
2013-03-29 23:30:00,54.0,45.5,30.05,SE,140,2.9,4.0,73,0.00,CLR,,0.00,0.0,WeatherDisplay:10.37,2013-03-30 04:30:00,
2013-03-29 23:31:00,54.0,45.5,30.05,SE,145,3.2,3.5,73,0.00,CLR,,0.00,0.0,WeatherDisplay:10.37,2013-03-30 04:31:00,
2013-03-29 23:32:00,54.0,45.5,30.05,SE,135,2.3,3.5,73,0.00,CLR,,0.00,0.0,WeatherDisplay:10.37,2013-03-30 04:32:00,
2013-03-29 23:34:00,54.1,45.6,30.05,SE,144,2.1,3.5,73,0.00,CLR,,0.00,0.0,WeatherDisplay:10.37,2013-03-30 04:34:00,
2013-03-29 23:36:00,54.1,45.6,30.05,SSE,161,3.0,4.6,73,0.00,CLR,,0.00,0.0,WeatherDisplay:10.37,2013-03-30 04:36:00,
2013-03-29 23:37:00,54.1,45.6,30.05,SSE,150,2.4,4.6,73,0.00,CLR,,0.00,0.0,WeatherDisplay:10.37,2013-03-30 04:37:00,
2013-03-29 23:39:00,54.1,45.6,30.05,SSE,152,2.4,3.5,73,0.00,CLR,,0.00,0.0,WeatherDisplay:10.37,2013-03-30 04:39:00,
2013-03-29 23:42:00,54.1,45.6,30.05,South,169,3.7,5.8,73,0.00,CLR,,0.00,0.0,WeatherDisplay:10.37,2013-03-30 04:42:00,
2013-03-29 23:44:00,54.1,45.6,30.05,East,96,3.4,5.8,73,0.00,CLR,,0.00,0.0,WeatherDisplay:10.37,2013-03-30 04:44:00,
2013-03-29 23:47:00,54.1,46.0,30.04,SE,135,1.9,4.6,74,0.00,CLR,,0.00,0.0,WeatherDisplay:10.37,2013-03-30 04:47:00,
2013-03-29 23:49:00,54.1,46.0,30.04,SE,126,2.5,8.0,74,0.00,CLR,,0.00,0.0,WeatherDisplay:10.37,2013-03-30 04:49:00,
2013-03-29 23:52:00,54.0,45.9,30.04,SE,136,3.7,8.1,74,0.00,CLR,,0.00,0.0,WeatherDisplay:10.37,2013-03-30 04:52:00,
2013-03-29 23:54:00,54.1,46.0,30.04,ESE,119,2.5,5.8,74,0.00,CLR,,0.00,0.0,WeatherDisplay:10.37,2013-03-30 04:54:00,
2013-03-29 23:57:00,54.0,46.3,30.03,ESE,119,1.8,5.0,75,0.00,CLR,,0.00,0.0,WeatherDisplay:10.37,2013-03-30 04:57:00,
2013-03-29 23:58:00,54.0,46.3,30.03,SE,144,2.1,5.0,75,0.00,CLR,,0.00,0.0,WeatherDisplay:10.37,2013-03-30 04:58:00,
2013-03-29 23:59:00,54.0,46.3,30.03,SE,135,5.0,7.0,75,0.00,CLR,,0.00,0.0,WeatherDisplay:10.37,2013-03-30 04:59:00,